EW8144 Weather Reports


time (UTC)temp
C
wind
direction
speed
KPH
gust
KPH
rain 1hr
cm
rain 24hr
cm
rain mn
cm
humidity
%
barometer
mb
20260506143852 27 215 8.0 29.0 0.00 0.00 0.00 34 1003.4
20260506143755 27 215 4.8 29.0 0.00 0.00 0.00 33 1003.4
20260506143701 27 199 4.8 29.0 0.00 0.00 0.00 33 1003.4
20260506143627 26 199 6.4 29.0 0.00 0.00 0.00 33 1002.3
20260506143553 27 199 9.7 29.0 0.00 0.00 0.00 33 1003.5
20260506143457 27 205 11.3 29.0 0.00 0.00 0.00 34 1003.4
20260506143359 27 227 17.7 29.0 0.00 0.00 0.00 34 1003.4
20260506143239 27 234 17.7 29.0 0.00 0.00 0.00 34 1003.4
20260506143134 27 246 12.9 22.5 0.00 0.00 0.00 34 1003.4
20260506143037 27 243 11.3 20.9 0.00 0.00 0.00 34 1003.4
20260506142940 27 232 14.5 20.9 0.00 0.00 0.00 33 1003.5
20260506142843 27 270 14.5 20.9 0.00 0.00 0.00 34 1003.4
20260506142737 27 251 12.9 20.9 0.00 0.00 0.00 33 1003.4
20260506142640 27 266 12.9 20.9 0.00 0.00 0.00 33 1003.4
20260506142541 27 227 14.5 20.9 0.00 0.00 0.00 33 1003.4
20260506142442 27 227 16.1 25.7 0.00 0.00 0.00 32 1003.4
20260506142339 27 277 16.1 25.7 0.00 0.00 0.00 32 1003.4
20260506142241 27 247 12.9 25.7 0.00 0.00 0.00 33 1003.5
20260506142143 27 245 8.0 25.7 0.00 0.00 0.00 34 1003.4
20260506142044 27 202 8.0 25.7 0.00 0.00 0.00 33 1003.5
20260506142015 27 254 6.4 25.7 0.00 0.00 0.00 32 1002.4
20260506141937 27 214 11.3 25.7 0.00 0.00 0.00 32 1003.5
20260506141818 27 213 12.9 25.7 0.00 0.00 0.00 33 1003.5
20260506141724 27 251 16.1 25.7 0.00 0.00 0.00 33 1003.5
20260506141627 27 212 14.5 25.7 0.00 0.00 0.00 33 1003.5
20260506141554 27 244 11.3 22.5 0.00 0.00 0.00 34 1002.5
20260506141517 27 261 9.7 19.3 0.00 0.00 0.00 34 1003.6
20260506141419 27 201 9.7 19.3 0.00 0.00 0.00 34 1003.6
20260506141321 27 222 9.7 19.3 0.00 0.00 0.00 34 1003.6
20260506141156 27 228 4.8 16.1 0.00 0.00 0.00 34 1003.6
20260506141127 26 213 3.2 16.1 0.00 0.00 0.00 33 1002.5
20260506141048 27 199 3.2 16.1 0.00 0.00 0.00 33 1003.5
20260506140955 27 189 4.8 16.1 0.00 0.00 0.00 34 1003.5
20260506140836 27 215 9.7 16.1 0.00 0.00 0.00 34 1003.6
20260506140739 26 213 12.9 16.1 0.00 0.00 0.00 34 1003.6
20260506140633 26 197 9.7 17.7 0.00 0.00 0.00 35 1003.6
20260506140534 26 231 6.4 12.9 0.00 0.00 0.00 33 1003.6
20260506140436 26 216 4.8 11.3 0.00 0.00 0.00 34 1003.7
20260506140343 26 198 4.8 16.1 0.00 0.00 0.00 34 1003.6
20260506140214 26 225 1.6 16.1 0.00 0.00 0.00 34 1003.6
20260506140118 26 232 0.0 16.1 0.00 0.00 0.00 34 1003.6
20260506135957 26 232 1.6 22.5 0.00 0.00 0.00 34 1003.6
20260506135859 26 232 4.8 22.5 0.00 0.00 0.00 36 1003.7
20260506135731 26 244 8.0 24.1 0.00 0.00 0.00 34 1003.7
20260506135610 26 218 11.3 32.2 0.00 0.00 0.00 34 1003.6
20260506135512 26 268 12.9 32.2 0.00 0.00 0.00 34 1003.6
20260506135416 26 268 12.9 32.2 0.00 0.00 0.00 36 1003.6
20260506135310 26 280 14.5 32.2 0.00 0.00 0.00 35 1003.6
20260506135211 26 280 16.1 32.2 0.00 0.00 0.00 35 1003.6
20260506135115 26 272 17.7 32.2 0.00 0.00 0.00 34 1003.7
20260506135015 26 292 17.7 32.2 0.00 0.00 0.00 34 1003.7
20260506134913 27 258 19.3 32.2 0.00 0.00 0.00 35 1003.6
20260506134754 27 255 22.5 32.2 0.00 0.00 0.00 34 1003.6
20260506134636 27 273 17.7 25.7 0.00 0.00 0.00 34 1003.7
20260506134536 27 256 16.1 24.1 0.00 0.00 0.00 35 1003.7
20260506134409 27 272 17.7 24.1 0.00 0.00 0.00 34 1003.7
20260506134312 27 243 17.7 24.1 0.00 0.00 0.00 35 1003.8
20260506134214 27 236 14.5 24.1 0.00 0.00 0.00 36 1003.8
20260506134120 27 241 14.5 19.3 0.00 0.00 0.00 33 1003.8
20260506134028 27 249 12.9 22.5 0.00 0.00 0.00 33 1002.7
20260506133952 27 273 12.9 22.5 0.00 0.00 0.00 34 1003.8
20260506133855 27 245 9.7 22.5 0.00 0.00 0.00 34 1003.8
20260506133758 27 216 8.0 22.5 0.00 0.00 0.00 35 1003.8
20260506133701 27 221 11.3 22.5 0.00 0.00 0.00 35 1003.8
20260506133611 27 211 9.7 22.5 0.00 0.00 0.00 35 1002.7
20260506133531 27 249 11.3 22.5 0.00 0.00 0.00 34 1003.7
20260506133439 27 237 11.3 22.5 0.00 0.00 0.00 34 1003.8
20260506133341 27 258 16.1 22.5 0.00 0.00 0.00 33 1003.8
20260506133244 27 268 14.5 22.5 0.00 0.00 0.00 33 1003.8
20260506133136 27 261 12.9 19.3 0.00 0.00 0.00 33 1003.7
20260506133038 27 310 11.3 19.3 0.00 0.00 0.00 33 1003.9
20260506132940 27 253 8.0 19.3 0.00 0.00 0.00 33 1003.9
20260506132843 27 253 4.8 16.1 0.00 0.00 0.00 34 1003.9
20260506132739 27 228 4.8 16.1 0.00 0.00 0.00 34 1004.0
20260506132641 27 245 4.8 16.1 0.00 0.00 0.00 34 1003.9
20260506132542 27 322 6.4 16.1 0.00 0.00 0.00 34 1004.0
20260506132445 27 209 8.0 16.1 0.00 0.00 0.00 34 1004.0
20260506132339 27 234 9.7 16.1 0.00 0.00 0.00 35 1004.1
20260506132048 27 160 3.2 12.9 0.00 0.00 0.00 35 1004.0
20260506131955 27 195 6.4 12.9 0.00 0.00 0.00 35 1004.0
20260506131847 26 132 8.0 12.9 0.00 0.00 0.00 34 1004.0
20260506131748 26 203 6.4 12.9 0.00 0.00 0.00 36 1004.1
20260506131651 26 80 6.4 12.9 0.00 0.00 0.00 38 1004.0
20260506131618 26 178 4.8 12.9 0.00 0.00 0.00 38 1002.9
20260506131542 26 219 6.4 14.5 0.00 0.00 0.00 35 1004.1
20260506131446 26 180 8.0 16.1 0.00 0.00 0.00 35 1004.1
20260506131332 26 186 6.4 17.7 0.00 0.00 0.00 35 1004.1
20260506131224 26 153 8.0 19.3 0.00 0.00 0.00 34 1004.1
20260506131128 26 139 6.4 19.3 0.00 0.00 0.00 35 1004.1
20260506131029 26 221 8.0 19.3 0.00 0.00 0.00 35 1004.1
20260506130930 26 224 9.7 19.3 0.00 0.00 0.00 35 1004.1
20260506130802 26 225 11.3 19.3 0.00 0.00 0.00 34 1004.1
20260506130648 26 224 12.9 19.3 0.00 0.00 0.00 35 1004.1
20260506130547 26 222 12.9 19.3 0.00 0.00 0.00 35 1004.1
20260506130449 26 215 12.9 19.3 0.00 0.00 0.00 35 1004.1
20260506130343 26 231 12.9 20.9 0.00 0.00 0.00 36 1004.1
20260506130246 26 234 9.7 17.7 0.00 0.00 0.00 35 1004.0
20260506130149 26 259 3.2 17.7 0.00 0.00 0.00 35 1002.9
20260506130040 27 230 4.8 17.7 0.00 0.00 0.00 34 1004.0
20260506125947 27 248 6.4 17.7 0.00 0.00 0.00 33 1004.1
20260506125851 27 275 8.0 17.7 0.00 0.00 0.00 34 1004.1
20260506125754 27 222 8.0 16.1 0.00 0.00 0.00 34 1004.1
20260506125647 27 218 9.7 16.1 0.00 0.00 0.00 35 1004.2
20260506125550 27 222 8.0 19.3 0.00 0.00 0.00 36 1004.1
20260506125433 26 268 1.6 22.5 0.00 0.00 0.00 34 1004.2
20260506125341 26 250 0.0 22.5 0.00 0.00 0.00 34 1004.1
20260506125232 26 250 3.2 22.5 0.00 0.00 0.00 33 1004.1
20260506125135 26 250 6.4 22.5 0.00 0.00 0.00 33 1004.1
20260506125036 26 250 9.7 22.5 0.00 0.00 0.00 34 1004.2
20260506125004 26 256 9.7 22.5 0.00 0.00 0.00 34 1003.1
20260506124800 26 255 14.5 22.5 0.00 0.00 0.00 33 1004.2
20260506124703 26 272 11.3 17.7 0.00 0.00 0.00 35 1004.2
20260506124547 26 228 8.0 16.1 0.00 0.00 0.00 33 1004.2
20260506124521 26 123 8.0 16.1 0.00 0.00 0.00 33 1003.2
20260506124441 26 122 8.0 16.1 0.00 0.00 0.00 33 1004.4
20260506124345 26 276 6.4 16.1 0.00 0.00 0.00 34 1004.3
20260506124249 26 199 6.4 16.1 0.00 0.00 0.00 35 1004.3
20260506124130 26 208 8.0 16.1 0.00 0.00 0.00 34 1004.3
20260506124105 26 218 8.0 16.1 0.00 0.00 0.00 35 1003.2
20260506124021 26 219 11.3 19.3 0.00 0.00 0.00 34 1004.3
20260506123845 26 247 14.5 19.3 0.00 0.00 0.00 34 1004.3
20260506123748 27 224 14.5 19.3 0.00 0.00 0.00 35 1004.2
20260506123651 27 253 9.7 19.3 0.00 0.00 0.00 36 1004.3
20260506123626 26 248 8.0 19.3 0.00 0.00 0.00 36 1003.3
20260506123522 27 203 11.3 19.3 0.00 0.00 0.00 36 1004.3
20260506123424 26 230 11.3 19.3 0.00 0.00 0.00 37 1004.4
20260506123328 26 227 12.9 19.3 0.00 0.00 0.00 36 1004.3
20260506123158 26 220 16.1 19.3 0.00 0.00 0.00 36 1004.4
20260506123104 26 226 14.5 20.9 0.00 0.00 0.00 37 1004.4
20260506122944 26 245 11.3 20.9 0.00 0.00 0.00 36 1004.4
20260506122846 26 253 11.3 20.9 0.00 0.00 0.00 36 1004.4
20260506122750 26 274 11.3 20.9 0.00 0.00 0.00 35 1004.4
20260506122643 26 263 14.5 20.9 0.00 0.00 0.00 33 1004.4
20260506122522 26 272 16.1 20.9 0.00 0.00 0.00 34 1004.4
20260506122429 26 257 9.7 19.3 0.00 0.00 0.00 34 1004.3
20260506122332 26 315 6.4 19.3 0.00 0.00 0.00 34 1004.4
20260506122202 26 304 8.0 19.3 0.00 0.00 0.00 35 1004.3
20260506122105 26 232 4.8 19.3 0.00 0.00 0.00 36 1004.4
20260506122006 26 218 3.2 19.3 0.00 0.00 0.00 36 1004.4
20260506121907 26 214 6.4 19.3 0.00 0.00 0.00 35 1004.5
20260506121800 26 261 9.7 19.3 0.00 0.00 0.00 34 1004.6
20260506121707 26 149 11.3 19.3 0.00 0.00 0.00 34 1004.6
20260506121610 26 135 11.3 19.3 0.00 0.00 0.00 34 1004.5
20260506121510 26 101 6.4 14.5 0.00 0.00 0.00 34 1004.4
20260506121413 26 128 1.6 14.5 0.00 0.00 0.00 34 1004.6
20260506121246 26 178 3.2 14.5 0.00 0.00 0.00 34 1004.6
20260506121148 26 176 6.4 14.5 0.00 0.00 0.00 33 1004.7
20260506121053 26 159 6.4 14.5 0.00 0.00 0.00 33 1004.7
20260506120956 26 244 6.4 14.5 0.00 0.00 0.00 33 1004.7
20260506120849 26 226 6.4 14.5 0.00 0.00 0.00 36 1004.7
20260506120730 26 238 8.0 14.5 0.00 0.00 0.00 36 1004.7
20260506120633 26 226 9.7 16.1 0.00 0.00 0.00 37 1004.7
20260506120550 26 207 9.7 16.1 0.00 0.00 0.00 37 1003.6
20260506120502 26 224 11.3 16.1 0.00 0.00 0.00 36 1004.6
20260506120408 26 275 8.0 12.9 0.00 0.00 0.00 35 1004.5
20260506120311 26 256 4.8 11.3 0.00 0.00 0.00 38 1004.5
20260506120211 26 290 3.2 8.0 0.00 0.00 0.00 36 1004.5
20260506120149 26 272 3.2 8.0 0.00 0.00 0.00 35 1003.5
20260506120104 26 280 3.2 8.0 0.00 0.00 0.00 34 1004.6
20260506115943 26 280 4.8 8.0 0.00 0.00 0.00 34 1004.6
20260506115707 26 222 1.6 16.1 0.00 0.00 0.00 33 1004.6
20260506115615 26 222 1.6 16.1 0.00 0.00 0.00 34 1004.6
20260506115517 26 222 3.2 16.1 0.00 0.00 0.00 36 1004.6
20260506115420 26 222 3.2 16.1 0.00 0.00 0.00 35 1004.6
20260506115314 26 222 3.2 16.1 0.00 0.00 0.00 38 1004.6
20260506115152 26 234 4.8 16.1 0.00 0.00 0.00 36 1004.7
20260506115053 26 246 6.4 16.1 0.00 0.00 0.00 36 1004.6
20260506114957 26 224 9.7 16.1 0.00 0.00 0.00 36 1004.6
20260506114842 26 236 11.3 16.1 0.00 0.00 0.00 36 1004.6
20260506114737 26 238 11.3 14.5 0.00 0.00 0.00 35 1004.6
20260506114641 26 263 8.0 12.9 0.00 0.00 0.00 35 1004.6
20260506114541 26 263 3.2 8.0 0.00 0.00 0.00 35 1004.6
20260506114445 26 340 1.6 19.3 0.00 0.00 0.00 35 1004.6
20260506114338 26 340 3.2 24.1 0.00 0.00 0.00 34 1004.6
20260506114223 26 123 3.2 24.1 0.00 0.00 0.00 34 1004.6
20260506114125 26 126 3.2 24.1 0.00 0.00 0.00 33 1004.7
20260506114048 26 126 1.6 24.1 0.00 0.00 0.00 33 1003.6
20260506113955 26 184 1.6 24.1 0.00 0.00 0.00 34 1004.7
20260506113855 26 268 1.6 24.1 0.00 0.00 0.00 34 1004.6
20260506113759 26 268 8.0 24.1 0.00 0.00 0.00 33 1004.7
20260506113701 27 274 16.1 24.1 0.00 0.00 0.00 33 1004.6
20260506113629 26 278 16.1 24.1 0.00 0.00 0.00 33 1003.6
20260506113537 27 259 12.9 24.1 0.00 0.00 0.00 34 1004.6
20260506113440 27 251 9.7 22.5 0.00 0.00 0.00 34 1004.6
20260506113342 27 238 14.5 22.5 0.00 0.00 0.00 33 1004.6
20260506113234 27 266 14.5 22.5 0.00 0.00 0.00 32 1004.6
20260506113136 27 240 16.1 22.5 0.00 0.00 0.00 33 1004.6
20260506113016 27 272 17.7 22.5 0.00 0.00 0.00 34 1004.6
20260506112908 27 297 16.1 22.5 0.00 0.00 0.00 32 1004.5
20260506112814 27 320 11.3 22.5 0.00 0.00 0.00 30 1004.4
20260506112717 27 32 8.0 16.1 0.00 0.00 0.00 31 1004.5
20260506112619 27 57 6.4 12.9 0.00 0.00 0.00 30 1004.6
20260506112543 27 91 4.8 12.9 0.00 0.00 0.00 31 1003.6
20260506112510 27 103 1.6 12.9 0.00 0.00 0.00 30 1004.6
20260506112350 27 75 1.6 12.9 0.00 0.00 0.00 30 1004.7
20260506112230 27 75 4.8 14.5 0.00 0.00 0.00 30 1004.7
20260506112128 27 61 3.2 14.5 0.00 0.00 0.00 31 1004.7
20260506112028 27 238 4.8 19.3 0.00 0.00 0.00 32 1004.7
20260506111928 27 238 8.0 19.3 0.00 0.00 0.00 31 1004.8
20260506111812 27 276 8.0 19.3 0.00 0.00 0.00 31 1004.8
20260506111705 27 236 6.4 19.3 0.00 0.00 0.00 32 1004.8
20260506111609 27 234 6.4 19.3 0.00 0.00 0.00 32 1004.8
20260506111512 27 214 8.0 19.3 0.00 0.00 0.00 33 1004.9
20260506111354 27 179 9.7 19.3 0.00 0.00 0.00 32 1004.9
20260506111247 27 265 12.9 19.3 0.00 0.00 0.00 32 1005.0
20260506111128 27 239 12.9 17.7 0.00 0.00 0.00 32 1004.9
20260506111007 27 247 11.3 17.7 0.00 0.00 0.00 33 1005.0
20260506110838 27 253 4.8 16.1 0.00 0.00 0.00 34 1005.0
20260506110618 26 353 1.6 9.7 0.00 0.00 0.00 34 1005.0
20260506110518 26 349 0.0 12.9 0.00 0.00 0.00 33 1005.0
20260506110413 26 349 0.0 12.9 0.00 0.00 0.00 33 1005.0
20260506110315 26 349 3.2 12.9 0.00 0.00 0.00 32 1005.1
20260506110217 26 349 4.8 12.9 0.00 0.00 0.00 32 1005.0
20260506110120 26 353 6.4 16.1 0.00 0.00 0.00 33 1005.0
20260506110057 26 326 4.8 17.7 0.00 0.00 0.00 32 1003.9
20260506110012 26 33 6.4 17.7 0.00 0.00 0.00 32 1005.0
20260506105919 26 294 4.8 17.7 0.00 0.00 0.00 33 1005.1
20260506105822 27 289 4.8 17.7 0.00 0.00 0.00 33 1005.1
20260506105723 27 289 6.4 17.7 0.00 0.00 0.00 32 1005.2
20260506105656 26 289 6.4 17.7 0.00 0.00 0.00 34 1004.1
20260506105553 27 249 6.4 17.7 0.00 0.00 0.00 33 1005.1
20260506105456 27 257 8.0 17.7 0.00 0.00 0.00 33 1005.2
20260506105359 27 294 11.3 17.7 0.00 0.00 0.00 34 1005.1
20260506105305 27 272 9.7 17.7 0.00 0.00 0.00 34 1005.1
20260506105155 26 186 8.0 14.5 0.00 0.00 0.00 35 1005.2
20260506105054 26 195 4.8 12.9 0.00 0.00 0.00 35 1005.2
20260506104956 26 107 3.2 12.9 0.00 0.00 0.00 36 1005.2
20260506104857 26 219 3.2 12.9 0.00 0.00 0.00 36 1005.3
20260506104730 26 219 6.4 17.7 0.00 0.00 0.00 38 1005.3
20260506104637 26 218 8.0 17.7 0.00 0.00 0.00 39 1005.3
20260506104600 26 218 6.4 17.7 0.00 0.00 0.00 39 1004.2
20260506104527 26 255 6.4 17.7 0.00 0.00 0.00 37 1005.3
20260506104409 26 239 3.2 17.7 0.00 0.00 0.00 37 1005.4
20260506104311 26 222 3.2 17.7 0.00 0.00 0.00 36 1005.3
20260506104212 26 224 3.2 17.7 0.00 0.00 0.00 37 1005.3
20260506104143 26 224 3.2 17.7 0.00 0.00 0.00 37 1004.3
20260506104041 26 238 9.7 17.7 0.00 0.00 0.00 38 1005.4
20260506103944 26 236 11.3 19.3 0.00 0.00 0.00 38 1005.3
20260506103852 26 250 11.3 17.7 0.00 0.00 0.00 39 1005.4
20260506103734 26 251 12.9 17.7 0.00 0.00 0.00 39 1005.4
20260506103649 25 253 12.9 17.7 0.00 0.00 0.00 39 1004.3
20260506103606 26 243 12.9 17.7 0.00 0.00 0.00 40 1005.4
20260506103504 26 247 8.0 11.3 0.00 0.00 0.00 39 1005.4
20260506103347 26 284 6.4 9.7 0.00 0.00 0.00 38 1005.4
20260506103236 25 326 6.4 9.7 0.00 0.00 0.00 39 1005.4
20260506103142 25 268 3.2 9.7 0.00 0.00 0.00 39 1005.4
20260506103042 25 331 3.2 9.7 0.00 0.00 0.00 36 1005.4
20260506102945 25 331 1.6 9.7 0.00 0.00 0.00 36 1005.4
20260506102848 25 327 1.6 9.7 0.00 0.00 0.00 37 1005.4
20260506102742 25 85 4.8 9.7 0.00 0.00 0.00 37 1005.4
20260506102644 25 85 6.4 9.7 0.00 0.00 0.00 39 1005.4
20260506102531 25 70 3.2 9.7 0.00 0.00 0.00 39 1005.4
20260506102508 25 99 1.6 11.3 0.00 0.00 0.00 41 1004.3
20260506102423 25 24 1.6 11.3 0.00 0.00 0.00 41 1005.4
20260506102325 25 82 3.2 11.3 0.00 0.00 0.00 41 1005.5
20260506102227 25 67 3.2 11.3 0.00 0.00 0.00 41 1005.5
20260506102159 25 337 3.2 11.3 0.00 0.00 0.00 41 1004.4
20260506102121 25 57 4.8 11.3 0.00 0.00 0.00 41 1005.6
20260506102022 25 55 3.2 12.9 0.00 0.00 0.00 42 1005.6
20260506101904 25 16 4.8 12.9 0.00 0.00 0.00 42 1005.7
20260506101811 25 42 4.8 12.9 0.00 0.00 0.00 43 1005.8
20260506101705 25 153 4.8 12.9 0.00 0.00 0.00 41 1005.7
20260506101606 25 115 4.8 14.5 0.00 0.00 0.00 41 1005.8
20260506101505 25 107 6.4 14.5 0.00 0.00 0.00 41 1005.8
20260506101408 25 93 6.4 14.5 0.00 0.00 0.00 42 1005.7
20260506101303 25 72 6.4 14.5 0.00 0.00 0.00 42 1005.7
20260506101210 25 119 4.8 14.5 0.00 0.00 0.00 41 1005.7
20260506101111 25 95 4.8 14.5 0.00 0.00 0.00 41 1005.7
20260506101011 25 101 6.4 14.5 0.00 0.00 0.00 41 1005.7
20260506100904 25 52 6.4 14.5 0.00 0.00 0.00 42 1005.8
20260506100807 25 102 3.2 14.5 0.00 0.00 0.00 44 1005.8
20260506100649 25 120 3.2 9.7 0.00 0.00 0.00 42 1005.8
20260506100550 25 82 3.2 12.9 0.00 0.00 0.00 41 1005.8
20260506100528 24 82 1.6 12.9 0.00 0.00 0.00 42 1004.7
20260506100448 25 69 3.2 12.9 0.00 0.00 0.00 44 1005.9
20260506100329 25 114 6.4 12.9 0.00 0.00 0.00 43 1005.9
20260506100231 25 105 8.0 14.5 0.00 0.00 0.00 43 1005.9
20260506100111 25 91 6.4 20.9 0.00 0.00 0.00 42 1005.9
20260506100003 25 66 4.8 20.9 0.00 0.00 0.00 42 1005.9
20260506095737 24 94 8.0 20.9 0.00 0.00 0.00 45 1006.0
20260506095645 24 95 8.0 20.9 0.00 0.00 0.00 45 1006.0
20260506095618 24 70 8.0 20.9 0.00 0.00 0.00 45 1004.9
20260506095536 24 92 9.7 20.9 0.00 0.00 0.00 45 1006.0
20260506095438 24 109 11.3 20.9 0.00 0.00 0.00 44 1006.0
20260506095341 24 94 12.9 20.9 0.00 0.00 0.00 45 1006.1
20260506095233 24 93 12.9 20.9 0.00 0.00 0.00 45 1006.0
20260506095136 24 57 11.3 19.3 0.00 0.00 0.00 47 1006.1
20260506095041 24 117 9.7 19.3 0.00 0.00 0.00 47 1006.0
20260506094923 24 103 9.7 22.5 0.00 0.00 0.00 45 1006.0
20260506094816 24 344 8.0 22.5 0.00 0.00 0.00 45 1006.0
20260506094719 24 89 9.7 22.5 0.00 0.00 0.00 45 1006.1
20260506094619 24 58 11.3 22.5 0.00 0.00 0.00 47 1006.1
20260506094501 24 74 9.7 22.5 0.00 0.00 0.00 46 1006.1
20260506094335 24 110 11.3 22.5 0.00 0.00 0.00 45 1006.1
20260506094219 24 70 14.5 22.5 0.00 0.00 0.00 46 1006.2
20260506094119 24 112 16.1 22.5 0.00 0.00 0.00 47 1006.2
20260506094001 24 94 14.5 22.5 0.00 0.00 0.00 47 1006.2
20260506093832 24 78 9.7 19.3 0.00 0.00 0.00 47 1006.3
20260506093735 23 110 6.4 19.3 0.00 0.00 0.00 48 1006.3
20260506093639 23 39 8.0 19.3 0.00 0.00 0.00 47 1006.3
20260506093544 23 85 11.3 19.3 0.00 0.00 0.00 48 1006.4
20260506093447 23 80 9.7 19.3 0.00 0.00 0.00 47 1006.4
20260506093342 23 70 9.7 19.3 0.00 0.00 0.00 48 1006.4
20260506093243 23 106 12.9 19.3 0.00 0.00 0.00 48 1006.4
20260506093146 23 82 12.9 19.3 0.00 0.00 0.00 49 1006.5
20260506093047 23 111 12.9 19.3 0.00 0.00 0.00 48 1006.5
20260506093031 23 47 11.3 19.3 0.00 0.00 0.00 48 1005.4
20260506092942 23 88 11.3 22.5 0.00 0.00 0.00 48 1006.5
20260506092827 23 55 11.3 22.5 0.00 0.00 0.00 48 1006.5
20260506092731 23 109 11.3 22.5 0.00 0.00 0.00 48 1006.5
20260506092650 23 89 9.7 22.5 0.00 0.00 0.00 49 1005.5
20260506092433 23 55 6.4 22.5 0.00 0.00 0.00 50 1006.5
20260506092334 23 101 8.0 24.1 0.00 0.00 0.00 51 1006.6
20260506092227 23 68 12.9 24.1 0.00 0.00 0.00 50 1006.6
20260506092114 23 116 16.1 24.1 0.00 0.00 0.00 50 1006.6
20260506092015 23 74 12.9 24.1 0.00 0.00 0.00 49 1006.6
20260506091916 23 105 12.9 24.1 0.00 0.00 0.00 49 1006.6
20260506091810 23 95 12.9 24.1 0.00 0.00 0.00 50 1006.6
20260506091712 23 88 14.5 24.1 0.00 0.00 0.00 49 1006.7
20260506091612 23 102 14.5 24.1 0.00 0.00 0.00 50 1006.6
20260506091454 23 78 12.9 20.9 0.00 0.00 0.00 52 1006.6
20260506091331 23 117 14.5 19.3 0.00 0.00 0.00 50 1006.8
20260506091234 23 104 12.9 19.3 0.00 0.00 0.00 52 1006.7
20260506091138 23 89 6.4 19.3 0.00 0.00 0.00 51 1006.7
20260506091053 22 105 4.8 19.3 0.00 0.00 0.00 50 1005.7
20260506091008 23 55 8.0 19.3 0.00 0.00 0.00 50 1006.8
20260506090908 23 54 11.3 19.3 0.00 0.00 0.00 50 1006.8
20260506090809 23 71 11.3 19.3 0.00 0.00 0.00 50 1006.8
20260506090717 23 72 8.0 17.7 0.00 0.00 0.00 50 1006.9
20260506090652 22 68 6.4 17.7 0.00 0.00 0.00 50 1005.9
20260506090607 23 89 6.4 22.5 0.00 0.00 0.00 51 1006.9
20260506090428 23 84 9.7 22.5 0.00 0.00 0.00 50 1007.0
20260506090330 23 101 11.3 22.5 0.00 0.00 0.00 50 1006.9
20260506090213 23 72 12.9 22.5 0.00 0.00 0.00 51 1007.0
20260506090150 22 101 11.3 22.5 0.00 0.00 0.00 51 1005.9
20260506090104 23 103 11.3 22.5 0.00 0.00 0.00 51 1007.0
20260506090010 23 102 8.0 22.5 0.00 0.00 0.00 51 1006.9
20260506085914 23 68 11.3 22.5 0.00 0.00 0.00 50 1006.9
20260506085818 23 97 11.3 22.5 0.00 0.00 0.00 51 1006.9
20260506085712 22 108 11.3 17.7 0.00 0.00 0.00 52 1006.8
20260506085615 22 70 11.3 17.7 0.00 0.00 0.00 52 1006.9
20260506085517 22 92 8.0 16.1 0.00 0.00 0.00 53 1006.9
20260506085349 22 95 8.0 16.1 0.00 0.00 0.00 52 1007.0
20260506085257 22 54 8.0 16.1 0.00 0.00 0.00 52 1007.0
20260506085158 22 105 9.7 16.1 0.00 0.00 0.00 51 1007.0
20260506084921 22 106 6.4 12.9 0.00 0.00 0.00 52 1007.2
20260506084801 22 87 6.4 12.9 0.00 0.00 0.00 52 1007.2
20260506084704 22 53 4.8 12.9 0.00 0.00 0.00 53 1007.2
20260506084606 22 96 4.8 12.9 0.00 0.00 0.00 52 1007.1
20260506084549 22 85 4.8 12.9 0.00 0.00 0.00 52 1006.1
20260506084503 22 88 6.4 12.9 0.00 0.00 0.00 51 1007.1
20260506084405 22 71 8.0 12.9 0.00 0.00 0.00 51 1007.2
20260506084303 22 86 8.0 16.1 0.00 0.00 0.00 52 1007.2
20260506084204 22 95 4.8 16.1 0.00 0.00 0.00 53 1007.2
20260506084114 22 53 3.2 16.1 0.00 0.00 0.00 53 1006.1
20260506084035 22 72 1.6 16.1 0.00 0.00 0.00 52 1007.2
20260506083937 22 355 3.2 16.1 0.00 0.00 0.00 52 1007.2
20260506083844 22 47 6.4 16.1 0.00 0.00 0.00 52 1007.3
20260506083725 22 58 9.7 16.1 0.00 0.00 0.00 52 1007.3
20260506083633 22 109 9.7 16.1 0.00 0.00 0.00 52 1006.1
20260506083556 22 86 11.3 16.1 0.00 0.00 0.00 52 1007.3
20260506083437 22 92 8.0 16.1 0.00 0.00 0.00 53 1007.3
20260506083340 22 81 4.8 14.5 0.00 0.00 0.00 52 1007.3
20260506083220 22 34 8.0 14.5 0.00 0.00 0.00 52 1007.3
20260506083152 22 80 8.0 14.5 0.00 0.00 0.00 52 1006.2
20260506083116 22 82 8.0 14.5 0.00 0.00 0.00 52 1007.3
20260506083020 22 81 8.0 12.9 0.00 0.00 0.00 53 1007.3
20260506082900 22 94 6.4 12.9 0.00 0.00 0.00 53 1007.3
20260506082802 22 82 4.8 11.3 0.00 0.00 0.00 53 1007.3
20260506082655 22 103 3.2 11.3 0.00 0.00 0.00 53 1007.3
20260506082555 22 94 3.2 11.3 0.00 0.00 0.00 53 1007.3
20260506082458 22 94 3.2 11.3 0.00 0.00 0.00 53 1007.3
20260506082404 22 94 4.8 11.3 0.00 0.00 0.00 54 1007.3
20260506082309 22 99 4.8 11.3 0.00 0.00 0.00 53 1007.3
20260506082157 22 52 6.4 11.3 0.00 0.00 0.00 53 1007.3
20260506082058 22 93 4.8 11.3 0.00 0.00 0.00 54 1007.3
20260506082001 22 109 3.2 8.0 0.00 0.00 0.00 53 1007.4
20260506081905 22 105 1.6 8.0 0.00 0.00 0.00 54 1007.4
20260506081735 22 105 1.6 12.9 0.00 0.00 0.00 54 1007.4
20260506081641 22 105 3.2 12.9 0.00 0.00 0.00 53 1007.4
20260506081542 22 105 3.2 12.9 0.00 0.00 0.00 54 1007.4
20260506081508 22 79 1.6 12.9 0.00 0.00 0.00 55 1006.3
20260506081436 22 99 0.0 12.9 0.00 0.00 0.00 55 1007.4
20260506081318 22 99 1.6 12.9 0.00 0.00 0.00 55 1007.4
20260506081219 22 99 3.2 12.9 0.00 0.00 0.00 54 1007.4
20260506081057 22 93 6.4 12.9 0.00 0.00 0.00 54 1007.4
20260506081003 22 109 6.4 12.9 0.00 0.00 0.00 55 1007.4
20260506080857 22 88 4.8 9.7 0.00 0.00 0.00 56 1007.4
20260506080800 22 59 4.8 9.7 0.00 0.00 0.00 55 1007.4
20260506080702 22 49 3.2 9.7 0.00 0.00 0.00 57 1007.4
20260506080626 21 82 1.6 8.0 0.00 0.00 0.00 57 1006.3
20260506080554 22 349 1.6 6.4 0.00 0.00 0.00 57 1007.4
20260506080436 21 356 0.0 6.4 0.00 0.00 0.00 58 1007.4
20260506080338 21 72 1.6 6.4 0.00 0.00 0.00 58 1007.5
20260506080245 21 95 1.6 6.4 0.00 0.00 0.00 57 1007.5
20260506080146 21 95 1.6 6.4 0.00 0.00 0.00 58 1007.5
20260506080119 21 27 0.0 4.8 0.00 0.00 0.00 58 1006.4
20260506073455 20 6 0.0 8.0 0.00 0.00 0.00 65 1008.0
20260506073357 20 6 1.6 8.0 0.00 0.00 0.00 65 1008.0
20260506073306 20 6 1.6 8.0 0.00 0.00 0.00 63 1008.0
20260506073153 20 50 1.6 8.0 0.00 0.00 0.00 64 1008.0
20260506073032 19 53 3.2 8.0 0.00 0.00 0.00 64 1007.9
20260506072936 19 62 3.2 8.0 0.00 0.00 0.00 64 1008.0
20260506072807 19 6 4.8 8.0 0.00 0.00 0.00 65 1008.0
20260506072709 19 351 4.8 8.0 0.00 0.00 0.00 64 1008.1
20260506072615 19 309 4.8 8.0 0.00 0.00 0.00 64 1008.1
20260506072508 19 309 3.2 8.0 0.00 0.00 0.00 64 1008.1
20260506072410 18 309 3.2 8.0 0.00 0.00 0.00 65 1008.1
20260506072305 18 276 3.2 8.0 0.00 0.00 0.00 66 1008.2
20260506072147 18 272 3.2 8.0 0.00 0.00 0.00 65 1008.2
20260506072046 18 279 3.2 8.0 0.00 0.00 0.00 65 1008.2
20260506071949 18 279 4.8 8.0 0.00 0.00 0.00 65 1008.2
20260506071847 18 261 3.2 8.0 0.00 0.00 0.00 66 1008.2
20260506071728 18 314 3.2 8.0 0.00 0.00 0.00 66 1008.2
20260506071610 18 344 4.8 8.0 0.00 0.00 0.00 66 1008.2
20260506071512 18 320 4.8 8.0 0.00 0.00 0.00 66 1008.2
20260506071405 18 315 4.8 11.3 0.00 0.00 0.00 67 1008.2
20260506071308 18 336 4.8 11.3 0.00 0.00 0.00 67 1008.2
20260506071133 18 315 4.8 11.3 0.00 0.00 0.00 67 1008.3
20260506071106 18 311 3.2 11.3 0.00 0.00 0.00 67 1007.2
20260506071023 18 297 4.8 11.3 0.00 0.00 0.00 68 1008.3
20260506070758 18 285 6.4 11.3 0.00 0.00 0.00 68 1008.3
20260506070652 18 262 6.4 11.3 0.00 0.00 0.00 68 1008.3
20260506070532 18 259 6.4 11.3 0.00 0.00 0.00 68 1008.3
20260506070434 18 299 6.4 11.3 0.00 0.00 0.00 68 1008.3
20260506070320 18 299 6.4 11.3 0.00 0.00 0.00 68 1008.4
20260506070213 18 277 6.4 11.3 0.00 0.00 0.00 68 1008.4
20260506070112 18 316 6.4 8.0 0.00 0.00 0.00 69 1008.4
20260506062505 16 263 4.8 6.4 0.00 0.00 0.00 74 1008.8
20260506062409 16 263 4.8 6.4 0.00 0.00 0.00 74 1008.8
20260506062251 16 263 4.8 6.4 0.00 0.00 0.00 74 1008.8
20260506062154 16 263 3.2 6.4 0.00 0.00 0.00 75 1008.8
20260506062107 16 264 3.2 6.4 0.00 0.00 0.00 75 1007.8
20260506062024 16 263 3.2 4.8 0.00 0.00 0.00 75 1008.8
20260506061620 16 263 3.2 6.4 0.00 0.00 0.00 75 1008.9
20260506061520 16 264 1.6 6.4 0.00 0.00 0.00 75 1009.0
20260506061401 16 263 1.6 6.4 0.00 0.00 0.00 76 1009.0
20260506061236 16 264 3.2 6.4 0.00 0.00 0.00 75 1009.0
20260506061116 16 264 3.2 6.4 0.00 0.00 0.00 76 1009.0
20260506061016 16 264 3.2 6.4 0.00 0.00 0.00 76 1009.0
20260506060920 16 263 3.2 6.4 0.00 0.00 0.00 77 1009.0
20260506060813 16 263 3.2 6.4 0.00 0.00 0.00 79 1009.0
20260506060717 16 263 3.2 6.4 0.00 0.00 0.00 79 1009.0
20260506060622 16 264 3.2 6.4 0.00 0.00 0.00 78 1009.0
20260506060525 16 264 3.2 6.4 0.00 0.00 0.00 78 1008.9
20260506060419 16 263 3.2 6.4 0.00 0.00 0.00 78 1008.9
20260506060321 16 263 4.8 6.4 0.00 0.00 0.00 78 1008.9
20260506060222 15 263 4.8 6.4 0.00 0.00 0.00 79 1008.9
20260506060104 15 263 3.2 6.4 0.00 0.00 0.00 78 1008.9
20260506051415 12 263 0.0 0.0 0.00 0.00 0.00 89 1008.9
20260506051317 12 263 0.0 0.0 0.00 0.00 0.00 89 1008.8
20260506051219 12 263 0.0 0.0 0.00 0.00 0.00 90 1008.8
20260506051153 12 263 0.0 0.0 0.00 0.00 0.00 90 1007.8
20260506050941 12 263 0.0 0.0 0.00 0.00 0.00 90 1008.8
20260506050844 12 263 0.0 1.6 0.00 0.00 0.00 90 1008.9
20260506050721 12 263 0.0 1.6 0.00 0.00 0.00 90 1009.0
20260506050623 12 263 0.0 1.6 0.00 0.00 0.00 90 1009.0
20260506050502 12 263 0.0 1.6 0.00 0.00 0.00 90 1009.1
20260506050406 12 263 0.0 1.6 0.00 0.00 0.00 90 1009.1
20260506050259 12 263 0.0 1.6 0.00 0.00 0.00 90 1009.1
20260506050203 12 263 0.0 1.6 0.00 0.00 0.00 90 1009.1
20260506045115 12 263 0.0 0.0 0.00 0.00 0.00 88 1009.0
20260506045032 11 263 0.0 0.0 0.00 0.00 0.00 88 1008.0
20260506044948 12 263 0.0 0.0 0.00 0.00 0.00 88 1009.0
20260506044852 11 263 0.0 0.0 0.00 0.00 0.00 88 1008.9
20260506044756 11 263 0.0 0.0 0.00 0.00 0.00 88 1008.9
20260506044716 11 263 0.0 0.0 0.00 0.00 0.00 88 1007.9
20260506044701 11 263 0.0 0.0 0.00 0.00 0.00 88 1008.9
20260506044556 11 263 0.0 0.0 0.00 0.00 0.00 88 1008.9
20260506044500 11 263 0.0 0.0 0.00 0.00 0.00 88 1008.9
20260506044343 11 263 0.0 0.0 0.00 0.00 0.00 87 1008.9
20260506044246 11 263 0.0 0.0 0.00 0.00 0.00 87 1008.9
20260506044138 11 263 0.0 0.0 0.00 0.00 0.00 87 1008.9
20260506044037 11 263 0.0 0.0 0.00 0.00 0.00 87 1008.9
20260506043944 11 263 0.0 0.0 0.00 0.00 0.00 87 1009.0
20260506043827 11 263 0.0 0.0 0.00 0.00 0.00 87 1009.0
20260506043722 11 263 0.0 0.0 0.00 0.00 0.00 87 1009.0
20260506043413 12 263 0.0 0.0 0.00 0.00 0.00 86 1009.0
20260506043317 12 263 0.0 0.0 0.00 0.00 0.00 86 1009.0
20260506043147 12 263 0.0 0.0 0.00 0.00 0.00 86 1009.0
20260506043052 12 263 0.0 0.0 0.00 0.00 0.00 86 1009.0
20260506042955 12 263 0.0 0.0 0.00 0.00 0.00 85 1009.0
20260506042859 12 263 0.0 0.0 0.00 0.00 0.00 85 1009.0
20260506042752 12 263 0.0 0.0 0.00 0.00 0.00 85 1009.0
20260506042655 12 263 0.0 0.0 0.00 0.00 0.00 85 1009.0
20260506042556 12 263 0.0 0.0 0.00 0.00 0.00 85 1009.0
20260506042417 12 263 0.0 0.0 0.00 0.00 0.00 85 1008.9
20260506042253 12 263 0.0 0.0 0.00 0.00 0.00 85 1009.0
20260506042151 12 263 0.0 0.0 0.00 0.00 0.00 85 1008.9
20260506042032 12 263 0.0 0.0 0.00 0.00 0.00 85 1009.0
20260506041851 12 263 0.0 0.0 0.00 0.00 0.00 85 1009.0
20260506041746 12 263 0.0 0.0 0.00 0.00 0.00 85 1009.0
20260506041650 12 263 0.0 0.0 0.00 0.00 0.00 85 1008.9
20260506041555 12 263 0.0 0.0 0.00 0.00 0.00 85 1008.9
20260506041457 12 263 0.0 0.0 0.00 0.00 0.00 85 1009.0
20260506041401 12 263 0.0 0.0 0.00 0.00 0.00 85 1009.0
20260506041254 12 263 0.0 0.0 0.00 0.00 0.00 85 1009.0
20260506041133 12 263 0.0 0.0 0.00 0.00 0.00 86 1009.0
20260506041014 12 263 0.0 0.0 0.00 0.00 0.00 86 1009.0
20260506040846 12 263 0.0 0.0 0.00 0.00 0.00 86 1009.0
20260506040752 12 263 0.0 0.0 0.00 0.00 0.00 86 1008.9
20260506040656 12 263 0.0 0.0 0.00 0.00 0.00 85 1008.9
20260506040557 12 263 0.0 0.0 0.00 0.00 0.00 85 1008.9
20260506040501 12 263 0.0 0.0 0.00 0.00 0.00 85 1008.9
20260506040353 12 263 0.0 0.0 0.00 0.00 0.00 85 1008.8
20260506040252 12 263 0.0 0.0 0.00 0.00 0.00 85 1008.9
20260506040157 12 263 0.0 0.0 0.00 0.00 0.00 85 1008.9
20260506040118 12 263 0.0 0.0 0.00 0.00 0.00 85 1007.9
20260506040030 12 263 0.0 0.0 0.00 0.00 0.00 85 1008.8
20260506035934 12 263 0.0 0.0 0.00 0.00 0.00 85 1008.8
20260506035816 12 263 0.0 0.0 0.00 0.00 0.00 85 1008.8
20260506035709 12 263 0.0 0.0 0.00 0.00 0.00 85 1008.8
20260506035611 12 263 0.0 0.0 0.00 0.00 0.00 84 1008.8
20260506035455 12 263 0.0 0.0 0.00 0.00 0.00 84 1008.8
20260506035358 12 263 0.0 0.0 0.00 0.00 0.00 84 1008.8
20260506035230 12 263 0.0 0.0 0.00 0.00 0.00 85 1008.8
20260506035134 12 263 0.0 0.0 0.00 0.00 0.00 85 1008.8
20260506035035 12 263 0.0 0.0 0.00 0.00 0.00 85 1008.8
20260506034939 12 263 0.0 0.0 0.00 0.00 0.00 85 1008.8
20260506034751 12 263 0.0 0.0 0.00 0.00 0.00 86 1008.7
20260506034659 12 263 0.0 0.0 0.00 0.00 0.00 86 1008.8
20260506034558 12 263 0.0 0.0 0.00 0.00 0.00 86 1008.8
20260506034438 12 263 0.0 1.6 0.00 0.00 0.00 86 1008.7
20260506034332 12 263 0.0 3.2 0.00 0.00 0.00 86 1008.8
20260506034232 12 263 0.0 3.2 0.00 0.00 0.00 86 1008.8
20260506034113 12 263 0.0 3.2 0.00 0.00 0.00 86 1008.7
20260506034019 12 263 0.0 3.2 0.00 0.00 0.00 85 1008.7
20260506033913 12 263 0.0 3.2 0.00 0.00 0.00 85 1008.7
20260506033755 12 263 0.0 3.2 0.00 0.00 0.00 85 1008.7
20260506033700 12 263 0.0 6.4 0.00 0.00 0.00 85 1008.7
20260506033540 12 263 1.6 6.4 0.00 0.00 0.00 84 1008.7
20260506033415 12 263 1.6 6.4 0.00 0.00 0.00 84 1008.6
20260506033318 12 263 1.6 6.4 0.00 0.00 0.00 84 1008.6
20260506033222 12 263 1.6 6.4 0.00 0.00 0.00 84 1008.6
20260506033127 12 263 0.0 6.4 0.00 0.00 0.00 83 1008.6
20260506033035 12 263 0.0 6.4 0.00 0.00 0.00 83 1007.6
20260506032958 12 263 1.6 6.4 0.00 0.00 0.00 83 1008.6
20260506032900 12 263 3.2 6.4 0.00 0.00 0.00 83 1008.5
20260506032803 12 264 3.2 6.4 0.00 0.00 0.00 83 1008.5
20260506032706 12 264 3.2 6.4 0.00 0.00 0.00 83 1008.6
20260506032617 12 264 1.6 6.4 0.00 0.00 0.00 83 1007.6
20260506032541 12 264 1.6 6.4 0.00 0.00 0.00 83 1008.6
20260506032443 12 264 3.2 6.4 0.00 0.00 0.00 83 1008.6
20260506032325 12 264 4.8 6.4 0.00 0.00 0.00 83 1008.6
20260506032229 12 264 3.2 6.4 0.00 0.00 0.00 83 1008.6
20260506032157 12 264 1.6 6.4 0.00 0.00 0.00 83 1007.6
20260506032123 12 265 1.6 6.4 0.00 0.00 0.00 83 1008.6
20260506032024 12 265 0.0 3.2 0.00 0.00 0.00 83 1008.6
20260506031927 12 265 0.0 3.2 0.00 0.00 0.00 83 1008.6
20260506031814 12 265 0.0 3.2 0.00 0.00 0.00 83 1008.6
20260506031707 13 265 0.0 3.2 0.00 0.00 0.00 83 1008.5
20260506031607 13 265 0.0 4.8 0.00 0.00 0.00 83 1008.6
20260506031506 13 265 0.0 4.8 0.00 0.00 0.00 83 1008.6
20260506031409 13 265 0.0 4.8 0.00 0.00 0.00 83 1008.7
20260506031304 13 265 0.0 4.8 0.00 0.00 0.00 83 1008.6
20260506031208 13 265 0.0 4.8 0.00 0.00 0.00 83 1008.6
20260506031112 13 265 0.0 4.8 0.00 0.00 0.00 83 1008.6
20260506031010 13 265 0.0 4.8 0.00 0.00 0.00 83 1008.6
20260506030905 13 265 1.6 4.8 0.00 0.00 0.00 83 1008.6
20260506030747 13 265 1.6 4.8 0.00 0.00 0.00 83 1008.6
20260506030651 13 265 0.0 1.6 0.00 0.00 0.00 82 1008.6
20260506030553 13 265 0.0 0.0 0.00 0.00 0.00 82 1008.6
20260506030528 12 265 0.0 0.0 0.00 0.00 0.00 82 1007.6
20260506030432 13 265 0.0 0.0 0.00 0.00 0.00 82 1008.6
20260506030336 13 265 0.0 0.0 0.00 0.00 0.00 82 1008.6
20260506030239 13 265 0.0 0.0 0.00 0.00 0.00 82 1008.6
20260506030131 13 265 0.0 0.0 0.00 0.00 0.00 82 1008.7
20260506030009 13 265 0.0 0.0 0.00 0.00 0.00 82 1008.7
20260506025913 13 265 0.0 0.0 0.00 0.00 0.00 82 1008.7
20260506025822 13 265 0.0 0.0 0.00 0.00 0.00 82 1008.7
20260506025714 13 265 0.0 0.0 0.00 0.00 0.00 82 1008.7
20260506025615 13 265 0.0 0.0 0.00 0.00 0.00 82 1008.7
20260506025320 13 265 0.0 0.0 0.00 0.00 0.00 82 1008.7
20260506025200 13 265 0.0 0.0 0.00 0.00 0.00 82 1008.7
20260506025059 13 265 0.0 0.0 0.00 0.00 0.00 82 1008.8
20260506025007 13 265 0.0 1.6 0.00 0.00 0.00 82 1008.8
20260506024841 13 265 0.0 3.2 0.00 0.00 0.00 82 1008.8
20260506024745 13 265 0.0 4.8 0.00 0.00 0.00 82 1008.7
20260506024650 13 265 0.0 4.8 0.00 0.00 0.00 82 1008.7
20260506024552 13 265 0.0 4.8 0.00 0.00 0.00 82 1008.8
20260506024521 13 265 0.0 4.8 0.00 0.00 0.00 82 1007.8
20260506024446 13 265 0.0 4.8 0.00 0.00 0.00 82 1008.8
20260506024353 13 265 0.0 6.4 0.00 0.00 0.00 82 1008.8
20260506024257 13 265 0.0 8.0 0.00 0.00 0.00 82 1008.8
20260506024137 13 265 1.6 8.0 0.00 0.00 0.00 82 1008.8
20260506024101 13 265 1.6 8.0 0.00 0.00 0.00 82 1007.9
20260506024030 13 265 3.2 8.0 0.00 0.00 0.00 82 1008.8
20260506023933 13 265 3.2 8.0 0.00 0.00 0.00 82 1008.7
20260506023838 13 265 3.2 8.0 0.00 0.00 0.00 82 1008.7
20260506023701 13 265 4.8 11.3 0.00 0.00 0.00 82 1008.7
20260506023628 13 265 3.2 11.3 0.00 0.00 0.00 82 1007.8
20260506023555 13 265 4.8 11.3 0.00 0.00 0.00 82 1008.7
20260506023458 13 265 6.4 14.5 0.00 0.00 0.00 82 1008.7
20260506023400 13 265 6.4 14.5 0.00 0.00 0.00 82 1008.7
20260506023304 13 267 6.4 14.5 0.00 0.00 0.00 82 1008.7
20260506023152 13 266 6.4 14.5 0.00 0.00 0.00 82 1008.7
20260506023052 13 265 6.4 14.5 0.00 0.00 0.00 82 1008.7
20260506022959 13 268 6.4 14.5 0.00 0.00 0.00 82 1008.7
20260506022901 13 264 6.4 14.5 0.00 0.00 0.00 82 1008.7
20260506022735 13 264 8.0 14.5 0.00 0.00 0.00 82 1008.7
20260506022639 13 264 8.0 14.5 0.00 0.00 0.00 81 1008.7
20260506022517 13 263 8.0 14.5 0.00 0.00 0.00 81 1008.7
20260506022420 13 259 8.0 14.5 0.00 0.00 0.00 81 1008.7
20260506022314 13 272 9.7 16.1 0.00 0.00 0.00 81 1008.7
20260506022219 13 260 9.7 16.1 0.00 0.00 0.00 81 1008.7
20260506022056 13 262 8.0 16.1 0.00 0.00 0.00 81 1008.7
20260506021939 13 268 11.3 16.1 0.00 0.00 0.00 81 1008.7
20260506021831 14 261 12.9 16.1 0.00 0.00 0.00 82 1008.7
20260506021734 14 261 11.3 16.1 0.00 0.00 0.00 82 1008.7
20260506021636 14 267 11.3 16.1 0.00 0.00 0.00 82 1008.7
20260506021521 14 265 11.3 16.1 0.00 0.00 0.00 82 1008.7
20260506021415 14 261 11.3 16.1 0.00 0.00 0.00 82 1008.7
20260506021317 14 261 9.7 16.1 0.00 0.00 0.00 82 1008.7
20260506021158 14 257 11.3 16.1 0.00 0.00 0.00 82 1008.7
20260506021122 13 259 9.7 16.1 0.00 0.00 0.00 82 1007.7
20260506021030 14 263 12.9 16.1 0.00 0.00 0.00 82 1008.7
20260506020934 14 264 12.9 16.1 0.00 0.00 0.00 82 1008.7
20260506020841 13 250 12.9 17.7 0.00 0.00 0.00 82 1008.6
20260506020736 13 261 12.9 17.7 0.00 0.00 0.00 82 1008.7
20260506020639 13 244 12.9 17.7 0.00 0.00 0.00 82 1008.7
20260506020541 14 247 9.7 16.1 0.00 0.00 0.00 82 1008.7
20260506020444 14 274 8.0 12.9 0.00 0.00 0.00 82 1008.8
20260506020336 14 256 8.0 11.3 0.00 0.00 0.00 82 1008.7
20260506020215 14 257 6.4 11.3 0.00 0.00 0.00 82 1008.8
20260506020120 14 257 6.4 12.9 0.00 0.00 0.00 82 1008.8
20260506020020 14 259 6.4 12.9 0.00 0.00 0.00 81 1008.8
20260506015852 14 251 8.0 12.9 0.00 0.00 0.00 81 1008.8
20260506015755 14 247 8.0 12.9 0.00 0.00 0.00 81 1008.8
20260506015657 14 257 6.4 12.9 0.00 0.00 0.00 81 1008.8
20260506015600 14 257 6.4 12.9 0.00 0.00 0.00 81 1007.8
20260506015528 14 257 8.0 12.9 0.00 0.00 0.00 81 1008.7
20260506015414 14 257 8.0 12.9 0.00 0.00 0.00 81 1008.7
20260506015317 14 262 8.0 12.9 0.00 0.00 0.00 81 1008.7
20260506015220 14 262 8.0 12.9 0.00 0.00 0.00 81 1008.7
20260506015146 14 268 8.0 14.5 0.00 0.00 0.00 81 1007.8
20260506015113 14 261 9.7 14.5 0.00 0.00 0.00 81 1008.8
20260506015013 14 263 9.7 14.5 0.00 0.00 0.00 81 1008.7
20260506014854 14 268 8.0 14.5 0.00 0.00 0.00 81 1008.8
20260506014759 14 272 8.0 14.5 0.00 0.00 0.00 81 1008.7
20260506014636 15 265 9.7 14.5 0.00 0.00 0.00 80 1008.7
20260506014538 15 262 11.3 14.5 0.00 0.00 0.00 80 1008.7
20260506014420 15 270 11.3 16.1 0.00 0.00 0.00 80 1008.7
20260506014324 15 258 11.3 16.1 0.00 0.00 0.00 80 1008.7
20260506014229 15 268 11.3 16.1 0.00 0.00 0.00 80 1008.6
20260506014059 15 256 9.7 17.7 0.00 0.00 0.00 80 1008.6
20260506014005 15 263 11.3 19.3 0.00 0.00 0.00 80 1008.6
20260506013847 15 257 9.7 19.3 0.00 0.00 0.00 80 1008.5
20260506013740 15 271 11.3 19.3 0.00 0.00 0.00 80 1008.5
20260506013641 15 250 12.9 19.3 0.00 0.00 0.00 80 1008.6
20260506013543 15 268 11.3 19.3 0.00 0.00 0.00 80 1008.6
20260506013447 15 277 12.9 20.9 0.00 0.00 0.00 80 1008.6
20260506013319 15 257 16.1 20.9 0.00 0.00 0.00 80 1008.6
20260506013224 15 253 14.5 20.9 0.00 0.00 0.00 80 1008.5
20260506013105 15 277 12.9 20.9 0.00 0.00 0.00 79 1008.5
20260506012945 15 267 12.9 20.9 0.00 0.00 0.00 79 1008.5
20260506012710 15 269 16.1 24.1 0.00 0.00 0.00 79 1008.5
20260506012612 15 270 14.5 24.1 0.00 0.00 0.00 79 1008.5
20260506012517 15 268 14.5 24.1 0.00 0.00 0.00 79 1007.6
20260506012444 15 269 16.1 24.1 0.00 0.00 0.00 79 1008.5
20260506012331 15 257 14.5 25.7 0.00 0.00 0.00 79 1008.5
20260506012233 15 252 16.1 25.7 0.00 0.00 0.00 79 1008.5
20260506012126 15 274 16.1 25.7 0.00 0.00 0.00 79 1008.5
20260506012027 15 251 17.7 27.4 0.00 0.00 0.00 79 1008.4
20260506011910 15 274 19.3 27.4 0.00 0.00 0.00 79 1008.4
20260506011810 15 263 19.3 27.4 0.00 0.00 0.00 79 1008.4
20260506011720 15 266 19.3 27.4 0.00 0.00 0.00 79 1008.5
20260506011658 15 271 19.3 27.4 0.00 0.00 0.00 79 1007.5
20260506011611 15 273 19.3 27.4 0.00 0.00 0.00 79 1008.4
20260506011513 15 270 20.9 27.4 0.00 0.00 0.00 79 1008.4
20260506011355 15 259 20.9 27.4 0.00 0.00 0.00 79 1008.4
20260506011056 15 253 20.9 27.4 0.00 0.00 0.00 79 1008.3
20260506011000 15 259 20.9 25.7 0.00 0.00 0.00 79 1008.3
20260506010906 15 266 19.3 25.7 0.00 0.00 0.00 79 1008.3
20260506010800 15 257 19.3 25.7 0.00 0.00 0.00 79 1008.3
20260506010703 15 277 19.3 25.7 0.00 0.00 0.00 79 1008.3
20260506010604 15 258 19.3 25.7 0.00 0.00 0.00 79 1008.3
20260506010446 15 245 19.3 25.7 0.00 0.00 0.00 79 1008.3
20260506010318 15 268 17.7 27.4 0.00 0.00 0.00 79 1008.3
20260506010202 15 268 16.1 27.4 0.00 0.00 0.00 79 1008.3
20260506010105 15 253 16.1 27.4 0.00 0.00 0.00 79 1008.3
20260506010005 15 244 17.7 27.4 0.00 0.00 0.00 79 1008.3
20260506005901 15 258 19.3 27.4 0.00 0.00 0.00 79 1008.3
20260506005723 15 266 19.3 27.4 0.00 0.00 0.00 79 1008.3
20260506005455 15 257 16.1 27.4 0.00 0.00 0.00 79 1008.3
20260506005350 15 262 17.7 27.4 0.00 0.00 0.00 79 1008.3
20260506005231 15 245 19.3 27.4 0.00 0.00 0.00 79 1008.3
20260506005136 15 255 19.3 27.4 0.00 0.00 0.00 79 1008.3
20260506005051 15 264 19.3 27.4 0.00 0.00 0.00 79 1007.3
20260506005004 15 257 20.9 27.4 0.00 0.00 0.00 79 1008.3
20260506004906 15 263 17.7 27.4 0.00 0.00 0.00 79 1008.2
20260506004808 15 265 16.1 27.4 0.00 0.00 0.00 79 1008.2
20260506004714 15 240 16.1 27.4 0.00 0.00 0.00 80 1008.2
20260506004653 15 244 17.7 27.4 0.00 0.00 0.00 80 1007.2
20260506004607 15 247 17.7 29.0 0.00 0.00 0.00 80 1008.2
20260506004509 15 246 17.7 29.0 0.00 0.00 0.00 79 1008.2
20260506004412 15 265 17.7 29.0 0.00 0.00 0.00 79 1008.1
20260506004317 15 274 19.3 29.0 0.00 0.00 0.00 79 1008.1
20260506004147 15 272 20.9 29.0 0.00 0.00 0.00 79 1008.2
20260506004049 15 267 22.5 29.0 0.00 0.00 0.00 79 1008.2
20260506003956 15 245 20.9 29.0 0.00 0.00 0.00 79 1008.1
20260506003719 15 253 22.5 29.0 0.00 0.00 0.00 79 1008.0
20260506003623 15 257 20.9 27.4 0.00 0.00 0.00 79 1008.0
20260506003524 15 259 20.9 27.4 0.00 0.00 0.00 79 1008.0
20260506003357 15 246 22.5 27.4 0.00 0.00 0.00 79 1008.0
20260506003259 15 255 20.9 27.4 0.00 0.00 0.00 79 1008.0
20260506003206 15 261 20.9 29.0 0.00 0.00 0.00 79 1008.0
20260506003110 15 252 19.3 29.0 0.00 0.00 0.00 79 1007.9
20260506003046 15 271 19.3 29.0 0.00 0.00 0.00 79 1007.0
20260506003000 15 253 19.3 29.0 0.00 0.00 0.00 79 1008.0
20260506002903 15 253 20.9 29.0 0.00 0.00 0.00 79 1008.0
20260506002744 15 253 20.9 29.0 0.00 0.00 0.00 79 1008.0
20260506002648 15 252 17.7 29.0 0.00 0.00 0.00 79 1008.0
20260506002624 15 251 16.1 30.6 0.00 0.00 0.00 79 1007.0
20260506002544 15 245 17.7 30.6 0.00 0.00 0.00 79 1008.0
20260506002447 15 242 19.3 32.2 0.00 0.00 0.00 79 1008.0
20260506002330 15 254 17.7 32.2 0.00 0.00 0.00 79 1008.0
20260506002223 15 255 20.9 32.2 0.00 0.00 0.00 79 1008.0
20260506002100 15 238 20.9 32.2 0.00 0.00 0.00 79 1007.9
20260506002004 15 254 20.9 32.2 0.00 0.00 0.00 79 1007.9
20260506001910 16 249 24.1 32.2 0.00 0.00 0.00 79 1007.9
20260506001721 16 258 20.9 33.8 0.00 0.00 0.00 78 1007.9
20260506001623 16 248 22.5 38.6 0.00 0.00 0.00 78 1007.9
20260506001525 16 261 22.5 38.6 0.00 0.00 0.00 78 1007.9
20260506001429 16 271 22.5 38.6 0.00 0.00 0.00 78 1007.9
20260506001323 16 249 25.7 38.6 0.00 0.00 0.00 78 1007.8
20260506001145 16 279 24.1 38.6 0.00 0.00 0.00 78 1007.9
20260506001047 16 270 24.1 38.6 0.00 0.00 0.00 78 1007.9
20260506000949 16 253 29.0 38.6 0.00 0.00 0.00 78 1007.8
20260506000844 16 266 29.0 38.6 0.00 0.00 0.00 78 1007.8
20260506000747 16 286 27.4 37.0 0.00 0.00 0.00 77 1007.8
20260506000650 16 249 27.4 37.0 0.00 0.00 0.00 77 1007.8
20260506000552 16 267 27.4 37.0 0.00 0.00 0.00 77 1007.8
20260506000526 16 265 27.4 37.0 0.00 0.00 0.00 77 1006.8
20260506000431 16 257 29.0 37.0 0.00 0.00 0.00 77 1007.8
20260506000153 16 272 24.1 37.0 0.00 0.00 0.00 77 1007.8
20260506000053 16 249 24.1 37.0 0.00 0.00 0.00 76 1007.7
20260505235955 16 262 29.0 37.0 0.00 0.00 0.00 76 1007.7
20260505235837 16 265 29.0 38.6 0.00 0.00 0.00 76 1007.6
20260505235710 16 258 27.4 38.6 0.00 0.00 0.00 76 1007.6
20260505235616 16 265 25.7 38.6 0.00 0.00 0.00 76 1007.6
20260505235458 16 269 27.4 38.6 0.00 0.00 0.00 76 1007.5
20260505235401 16 249 29.0 38.6 0.00 0.00 0.00 76 1007.5
20260505235234 16 267 29.0 37.0 0.00 0.00 0.00 75 1007.5
20260505235135 16 274 29.0 35.4 0.00 0.00 0.00 75 1007.4
20260505235036 16 263 27.4 33.8 0.00 0.00 0.00 75 1007.4
20260505234943 16 255 25.7 33.8 0.00 0.00 0.00 75 1007.3
20260505234837 16 275 24.1 33.8 0.00 0.00 0.00 75 1007.3
20260505234609 16 257 22.5 32.2 0.00 0.00 0.00 75 1007.3
20260505234453 16 264 24.1 32.2 0.00 0.00 0.00 75 1007.3
20260505234302 16 260 24.1 32.2 0.00 0.00 0.00 75 1007.2
20260505234205 16 240 22.5 32.2 0.00 0.00 0.00 74 1007.1
20260505234112 16 263 19.3 32.2 0.00 0.00 0.00 74 1007.2
20260505234011 16 255 19.3 32.2 0.00 0.00 0.00 74 1007.1
20260505233902 16 284 20.9 32.2 0.00 0.00 0.00 74 1007.1
20260505233804 16 280 22.5 32.2 0.00 0.00 0.00 74 1007.1
20260505233708 16 274 24.1 30.6 0.00 0.00 0.00 74 1007.1
20260505233636 16 273 22.5 30.6 0.00 0.00 0.00 74 1006.2
20260505233559 16 279 24.1 30.6 0.00 0.00 0.00 74 1007.1
20260505233503 16 272 20.9 30.6 0.00 0.00 0.00 74 1007.1
20260505233410 16 264 19.3 30.6 0.00 0.00 0.00 74 1007.1
20260505233313 16 242 19.3 30.6 0.00 0.00 0.00 74 1007.0
20260505233217 16 270 20.9 30.6 0.00 0.00 0.00 74 1007.1
20260505233154 16 266 20.9 30.6 0.00 0.00 0.00 74 1006.1
20260505233109 16 265 17.7 30.6 0.00 0.00 0.00 74 1007.1
20260505233008 16 261 14.5 25.7 0.00 0.00 0.00 74 1007.0
20260505232910 16 249 12.9 25.7 0.00 0.00 0.00 74 1007.0
20260505232807 16 270 12.9 25.7 0.00 0.00 0.00 74 1007.0
20260505232711 16 284 16.1 25.7 0.00 0.00 0.00 74 1007.0
20260505232550 16 282 17.7 25.7 0.00 0.00 0.00 74 1007.0
20260505232455 16 250 17.7 25.7 0.00 0.00 0.00 74 1007.0
20260505232330 16 275 17.7 24.1 0.00 0.00 0.00 74 1007.0
20260505232231 16 281 17.7 24.1 0.00 0.00 0.00 74 1006.9
20260505232136 16 265 17.7 24.1 0.00 0.00 0.00 74 1006.9
20260505232110 16 254 16.1 24.1 0.00 0.00 0.00 74 1006.0
20260505232026 16 274 16.1 22.5 0.00 0.00 0.00 74 1006.9
20260505231908 16 276 14.5 22.5 0.00 0.00 0.00 74 1006.9
20260505231811 16 262 16.1 22.5 0.00 0.00 0.00 74 1006.8
20260505231715 16 270 16.1 24.1 0.00 0.00 0.00 74 1006.9
20260505231652 16 276 16.1 24.1 0.00 0.00 0.00 74 1005.8
20260505231607 16 288 16.1 24.1 0.00 0.00 0.00 74 1006.7
20260505231447 16 273 16.1 24.1 0.00 0.00 0.00 74 1006.7
20260505231333 16 255 16.1 25.7 0.00 0.00 0.00 74 1006.7
20260505231225 16 263 16.1 25.7 0.00 0.00 0.00 74 1006.7
20260505231125 16 274 16.1 25.7 0.00 0.00 0.00 74 1006.6
20260505231005 16 280 17.7 25.7 0.00 0.00 0.00 74 1006.7
20260505230847 16 282 17.7 25.7 0.00 0.00 0.00 74 1006.6
20260505230740 16 271 17.7 25.7 0.00 0.00 0.00 74 1006.6
20260505230649 16 279 19.3 25.7 0.00 0.00 0.00 73 1006.6
20260505230550 16 264 17.7 25.7 0.00 0.00 0.00 73 1006.6
20260505230454 16 248 16.1 25.7 0.00 0.00 0.00 73 1006.6
20260505230348 16 270 14.5 24.1 0.00 0.00 0.00 73 1006.5
20260505230230 16 266 16.1 24.1 0.00 0.00 0.00 73 1006.5
20260505230134 16 252 17.7 24.1 0.00 0.00 0.00 73 1006.5
20260505230105 16 268 17.7 24.1 0.00 0.00 0.00 73 1005.6
20260505230029 16 268 19.3 24.1 0.00 0.00 0.00 73 1006.5
20260505225911 16 272 16.1 22.5 0.00 0.00 0.00 73 1006.5
20260505225812 16 264 14.5 22.5 0.00 0.00 0.00 73 1006.4
20260505225656 16 278 16.1 22.5 0.00 0.00 0.00 73 1006.4
20260505225630 16 279 16.1 22.5 0.00 0.00 0.00 73 1005.5
20260505225548 16 268 17.7 22.5 0.00 0.00 0.00 73 1006.4
20260505225449 16 240 16.1 22.5 0.00 0.00 0.00 73 1006.5
20260505225351 16 247 16.1 22.5 0.00 0.00 0.00 73 1006.4
20260505225236 16 273 14.5 22.5 0.00 0.00 0.00 73 1006.4
20260505225130 16 244 12.9 20.9 0.00 0.00 0.00 73 1006.4
20260505225031 16 250 12.9 20.9 0.00 0.00 0.00 73 1006.4
20260505224914 16 254 14.5 20.9 0.00 0.00 0.00 73 1006.4
20260505224819 16 266 12.9 20.9 0.00 0.00 0.00 72 1006.4
20260505224651 16 245 14.5 20.9 0.00 0.00 0.00 72 1006.4
20260505224555 16 236 14.5 20.9 0.00 0.00 0.00 72 1006.4
20260505224459 16 252 14.5 17.7 0.00 0.00 0.00 72 1006.4
20260505224400 16 270 14.5 20.9 0.00 0.00 0.00 72 1006.3
20260505224253 16 276 11.3 20.9 0.00 0.00 0.00 72 1006.3
20260505224133 16 251 11.3 20.9 0.00 0.00 0.00 72 1006.3
20260505224034 16 251 12.9 20.9 0.00 0.00 0.00 72 1006.3
20260505223919 16 257 12.9 20.9 0.00 0.00 0.00 72 1006.2
20260505223814 16 246 11.3 20.9 0.00 0.00 0.00 72 1006.2
20260505223654 16 255 14.5 20.9 0.00 0.00 0.00 72 1006.2
20260505223555 16 255 14.5 20.9 0.00 0.00 0.00 72 1006.2
20260505223437 16 231 12.9 22.5 0.00 0.00 0.00 71 1006.1
20260505223328 16 266 14.5 22.5 0.00 0.00 0.00 71 1006.2
20260505223230 17 253 12.9 25.7 0.00 0.00 0.00 71 1006.2
20260505223115 17 238 12.9 25.7 0.00 0.00 0.00 71 1006.2
20260505222957 17 240 12.9 25.7 0.00 0.00 0.00 71 1006.2
20260505222850 17 235 16.1 25.7 0.00 0.00 0.00 71 1006.2
20260505222732 17 249 17.7 25.7 0.00 0.00 0.00 71 1006.2
20260505222635 17 251 16.1 25.7 0.00 0.00 0.00 71 1006.2
20260505222537 17 243 16.1 25.7 0.00 0.00 0.00 71 1006.2
20260505222517 16 259 16.1 25.7 0.00 0.00 0.00 71 1005.3
20260505222430 17 251 17.7 25.7 0.00 0.00 0.00 71 1006.2
20260505222335 16 249 17.7 24.1 0.00 0.00 0.00 71 1006.1
20260505222215 16 260 16.1 20.9 0.00 0.00 0.00 71 1006.1
20260505222117 16 251 16.1 20.9 0.00 0.00 0.00 71 1006.1
20260505222034 16 263 14.5 20.9 0.00 0.00 0.00 71 1005.1
20260505221951 16 252 17.7 22.5 0.00 0.00 0.00 71 1006.1
20260505221854 16 241 16.1 22.5 0.00 0.00 0.00 71 1006.1
20260505221757 16 259 17.7 22.5 0.00 0.00 0.00 71 1006.1
20260505221636 16 257 16.1 22.5 0.00 0.00 0.00 71 1006.0
20260505221537 16 234 16.1 24.1 0.00 0.00 0.00 71 1006.0
20260505221440 16 249 16.1 24.1 0.00 0.00 0.00 71 1006.0
20260505221335 16 243 16.1 24.1 0.00 0.00 0.00 71 1005.9
20260505221235 16 281 14.5 24.1 0.00 0.00 0.00 71 1005.9
20260505221117 16 247 14.5 24.1 0.00 0.00 0.00 71 1005.9
20260505221021 16 249 14.5 24.1 0.00 0.00 0.00 71 1005.9
20260505220854 16 249 16.1 24.1 0.00 0.00 0.00 71 1005.9
20260505220736 16 254 16.1 24.1 0.00 0.00 0.00 71 1006.0
20260505220618 16 252 16.1 22.5 0.00 0.00 0.00 71 1005.9
20260505220518 16 255 17.7 22.5 0.00 0.00 0.00 71 1005.9
20260505220351 16 240 14.5 22.5 0.00 0.00 0.00 71 1005.9
20260505220254 16 253 12.9 22.5 0.00 0.00 0.00 71 1005.9
20260505220156 16 249 12.9 22.5 0.00 0.00 0.00 71 1005.9
20260505220035 16 239 12.9 22.5 0.00 0.00 0.00 71 1005.9
20260505220022 16 262 12.9 22.5 0.00 0.00 0.00 71 1005.0
20260505215929 16 255 12.9 22.5 0.00 0.00 0.00 71 1005.9
20260505215833 16 271 14.5 24.1 0.00 0.00 0.00 71 1005.9
20260505215737 16 244 14.5 24.1 0.00 0.00 0.00 71 1005.8
20260505215641 16 244 14.5 24.1 0.00 0.00 0.00 71 1005.9
20260505215618 16 244 14.5 24.1 0.00 0.00 0.00 71 1005.0
20260505215537 16 240 16.1 24.1 0.00 0.00 0.00 71 1005.8
20260505215440 16 240 16.1 24.1 0.00 0.00 0.00 71 1005.8
20260505215343 16 233 16.1 24.1 0.00 0.00 0.00 71 1005.8
20260505215244 16 245 17.7 24.1 0.00 0.00 0.00 71 1005.8
20260505215138 17 245 16.1 25.7 0.00 0.00 0.00 70 1005.8
20260505214956 17 247 17.7 27.4 0.00 0.00 0.00 70 1005.8
20260505214858 17 254 17.7 27.4 0.00 0.00 0.00 70 1005.8
20260505214802 17 250 17.7 27.4 0.00 0.00 0.00 70 1005.8
20260505214634 17 246 17.7 27.4 0.00 0.00 0.00 70 1005.8
20260505214514 17 240 19.3 27.4 0.00 0.00 0.00 70 1005.8
20260505214355 17 247 20.9 27.4 0.00 0.00 0.00 70 1005.8
20260505214256 17 242 20.9 27.4 0.00 0.00 0.00 70 1005.7
20260505214147 17 242 19.3 27.4 0.00 0.00 0.00 70 1005.8
20260505214033 17 247 17.7 29.0 0.00 0.00 0.00 70 1005.7
20260505213935 17 240 17.7 29.0 0.00 0.00 0.00 70 1005.7
20260505213808 17 255 19.3 29.0 0.00 0.00 0.00 70 1005.7
20260505213709 17 248 19.3 29.0 0.00 0.00 0.00 70 1005.6
20260505213548 17 243 20.9 29.0 0.00 0.00 0.00 70 1005.7
20260505213518 16 247 20.9 29.0 0.00 0.00 0.00 70 1004.7
20260505213442 17 246 22.5 29.0 0.00 0.00 0.00 70 1005.7
20260505213348 17 251 22.5 29.0 0.00 0.00 0.00 70 1005.7
20260505213251 17 261 22.5 30.6 0.00 0.00 0.00 70 1005.6
20260505213047 16 249 19.3 32.2 0.00 0.00 0.00 69 1004.8
20260505213010 17 245 20.9 32.2 0.00 0.00 0.00 69 1005.7
20260505212910 17 257 22.5 32.2 0.00 0.00 0.00 69 1005.6
20260505212752 17 249 20.9 32.2 0.00 0.00 0.00 69 1005.6
20260505212655 17 231 19.3 32.2 0.00 0.00 0.00 69 1005.6
20260505212601 17 250 20.9 32.2 0.00 0.00 0.00 69 1005.6
20260505212538 17 258 20.9 32.2 0.00 0.00 0.00 69 1004.7
20260505212432 17 240 24.1 32.2 0.00 0.00 0.00 69 1005.6
20260505212332 17 249 20.9 32.2 0.00 0.00 0.00 69 1005.6
20260505212234 17 263 20.9 32.2 0.00 0.00 0.00 69 1005.7
20260505212115 17 247 24.1 32.2 0.00 0.00 0.00 69 1005.6
20260505212040 17 251 22.5 32.2 0.00 0.00 0.00 69 1004.7
20260505212006 17 255 22.5 32.2 0.00 0.00 0.00 69 1005.6
20260505211910 17 251 20.9 33.8 0.00 0.00 0.00 68 1005.6
20260505211818 17 236 20.9 33.8 0.00 0.00 0.00 68 1005.6
20260505211700 17 248 20.9 35.4 0.00 0.00 0.00 68 1005.5
20260505211624 17 271 20.9 35.4 0.00 0.00 0.00 68 1004.6
20260505211550 17 246 22.5 35.4 0.00 0.00 0.00 68 1005.5
20260505211450 17 243 22.5 38.6 0.00 0.00 0.00 68 1005.5
20260505211354 17 240 22.5 38.6 0.00 0.00 0.00 68 1005.5
20260505211254 17 252 22.5 38.6 0.00 0.00 0.00 68 1005.5
20260505211132 17 226 24.1 37.0 0.00 0.00 0.00 68 1005.5
20260505211034 17 217 25.7 37.0 0.00 0.00 0.00 68 1005.5
20260505210937 17 221 25.7 37.0 0.00 0.00 0.00 68 1005.5
20260505210831 17 249 27.4 37.0 0.00 0.00 0.00 68 1005.5
20260505210734 17 251 29.0 37.0 0.00 0.00 0.00 68 1005.5
20260505210615 17 233 29.0 38.6 0.00 0.00 0.00 68 1005.5
20260505210518 17 234 27.4 37.0 0.00 0.00 0.00 68 1004.6
20260505210431 17 247 27.4 37.0 0.00 0.00 0.00 68 1005.5
20260505210333 17 288 27.4 37.0 0.00 0.00 0.00 68 1005.4
20260505210235 17 240 27.4 40.2 0.00 0.00 0.00 68 1005.5
20260505210129 17 243 29.0 40.2 0.00 0.00 0.00 68 1005.5
20260505205948 17 244 27.4 40.2 0.00 0.00 0.00 68 1005.4
20260505205850 17 258 27.4 40.2 0.00 0.00 0.00 68 1005.4
20260505205756 17 238 27.4 40.2 0.00 0.00 0.00 68 1005.4
20260505205700 17 240 29.0 41.8 0.00 0.00 0.00 68 1005.4
20260505205632 17 246 27.4 41.8 0.00 0.00 0.00 68 1004.5
20260505205551 17 242 25.7 41.8 0.00 0.00 0.00 68 1005.4
20260505205453 17 255 25.7 41.8 0.00 0.00 0.00 68 1005.4
20260505205355 17 242 25.7 41.8 0.00 0.00 0.00 68 1005.4
20260505205249 17 237 27.4 41.8 0.00 0.00 0.00 68 1005.4
20260505205130 17 216 27.4 41.8 0.00 0.00 0.00 68 1005.3
20260505205013 17 265 27.4 41.8 0.00 0.00 0.00 68 1005.4
20260505204916 17 254 30.6 41.8 0.00 0.00 0.00 68 1005.4
20260505204810 17 213 27.4 37.0 0.00 0.00 0.00 68 1005.3
20260505204714 17 255 24.1 40.2 0.00 0.00 0.00 67 1005.4
20260505204615 17 247 27.4 40.2 0.00 0.00 0.00 67 1005.2
20260505204436 17 248 24.1 40.2 0.00 0.00 0.00 67 1005.3
20260505204334 17 245 27.4 40.2 0.00 0.00 0.00 67 1005.4
20260505204213 17 253 27.4 40.2 0.00 0.00 0.00 67 1005.3
20260505204116 17 228 27.4 40.2 0.00 0.00 0.00 67 1005.3
20260505204017 17 250 30.6 40.2 0.00 0.00 0.00 67 1005.3
20260505203909 17 240 27.4 41.8 0.00 0.00 0.00 67 1005.3
20260505203811 17 248 24.1 41.8 0.00 0.00 0.00 66 1005.3
20260505203715 17 251 25.7 41.8 0.00 0.00 0.00 66 1005.3
20260505203622 17 245 27.4 41.8 0.00 0.00 0.00 66 1005.3
20260505203556 17 245 27.4 41.8 0.00 0.00 0.00 66 1004.4
20260505203513 17 251 27.4 41.8 0.00 0.00 0.00 66 1005.3
20260505203356 17 224 25.7 41.8 0.00 0.00 0.00 66 1005.2
20260505203258 17 257 27.4 41.8 0.00 0.00 0.00 66 1005.2
20260505203159 17 232 27.4 41.8 0.00 0.00 0.00 65 1005.2
20260505203134 17 251 27.4 41.8 0.00 0.00 0.00 65 1004.3
20260505203049 17 243 29.0 41.8 0.00 0.00 0.00 65 1005.1
20260505202936 18 253 30.6 41.8 0.00 0.00 0.00 65 1005.2
20260505202830 18 251 29.0 43.5 0.00 0.00 0.00 65 1005.2
20260505202712 18 254 27.4 38.6 0.00 0.00 0.00 65 1005.2
20260505202615 18 260 30.6 38.6 0.00 0.00 0.00 64 1005.1
20260505202515 18 253 29.0 38.6 0.00 0.00 0.00 64 1005.2
20260505202345 18 247 25.7 38.6 0.00 0.00 0.00 63 1005.1
20260505202251 18 219 25.7 38.6 0.00 0.00 0.00 63 1005.1
20260505202152 18 270 25.7 38.6 0.00 0.00 0.00 63 1005.1
20260505202053 18 233 27.4 38.6 0.00 0.00 0.00 63 1005.1
20260505202025 18 227 27.4 40.2 0.00 0.00 0.00 63 1004.2
20260505201948 18 247 29.0 40.2 0.00 0.00 0.00 62 1005.1
20260505201852 18 240 29.0 40.2 0.00 0.00 0.00 62 1005.0
20260505201756 18 253 29.0 40.2 0.00 0.00 0.00 62 1005.0
20260505201634 18 249 25.7 40.2 0.00 0.00 0.00 61 1005.0
20260505201536 18 226 27.4 40.2 0.00 0.00 0.00 61 1005.0
20260505201439 18 243 27.4 40.2 0.00 0.00 0.00 61 1005.0
20260505201341 18 236 27.4 40.2 0.00 0.00 0.00 61 1005.0
20260505201234 18 243 29.0 40.2 0.00 0.00 0.00 60 1005.0
20260505201137 18 240 27.4 37.0 0.00 0.00 0.00 60 1005.0
20260505201037 18 246 25.7 37.0 0.00 0.00 0.00 59 1005.0
20260505200924 18 223 25.7 37.0 0.00 0.00 0.00 59 1005.0
20260505200817 18 261 27.4 37.0 0.00 0.00 0.00 59 1004.9
20260505200720 19 226 27.4 37.0 0.00 0.00 0.00 59 1004.9
20260505200621 19 231 25.7 37.0 0.00 0.00 0.00 58 1004.9
20260505200551 18 247 25.7 37.0 0.00 0.00 0.00 58 1004.1
20260505200512 19 259 29.0 37.0 0.00 0.00 0.00 58 1004.9
20260505200332 19 250 25.7 37.0 0.00 0.00 0.00 57 1004.9
20260505200239 19 250 24.1 32.2 0.00 0.00 0.00 56 1004.9
20260505200121 19 229 24.1 32.2 0.00 0.00 0.00 56 1004.9
20260505200054 18 252 22.5 32.2 0.00 0.00 0.00 56 1004.0
20260505200010 19 243 22.5 32.2 0.00 0.00 0.00 55 1004.9
20260505195852 19 270 22.5 32.2 0.00 0.00 0.00 55 1004.9
20260505195734 19 250 20.9 32.2 0.00 0.00 0.00 54 1004.9
20260505195659 19 264 19.3 32.2 0.00 0.00 0.00 54 1003.9
20260505195626 19 245 22.5 32.2 0.00 0.00 0.00 53 1004.8
20260505195526 20 255 25.7 32.2 0.00 0.00 0.00 53 1004.8
20260505195412 20 249 24.1 32.2 0.00 0.00 0.00 52 1004.8
20260505195315 20 252 24.1 32.2 0.00 0.00 0.00 51 1004.8
20260505195205 20 252 22.5 32.2 0.00 0.00 0.00 50 1004.8
20260505195108 20 264 19.3 32.2 0.00 0.00 0.00 49 1004.8
20260505195009 20 245 19.3 29.0 0.00 0.00 0.00 48 1004.7
20260505194912 20 248 20.9 29.0 0.00 0.00 0.00 48 1004.7
20260505194807 20 266 20.9 29.0 0.00 0.00 0.00 48 1004.7
20260505194709 20 271 19.3 25.7 0.00 0.00 0.00 47 1004.6
20260505194612 20 263 17.7 25.7 0.00 0.00 0.00 48 1004.6
20260505194513 20 260 19.3 25.7 0.00 0.00 0.00 48 1004.5
20260505194346 20 267 19.3 25.7 0.00 0.00 0.00 48 1004.6
20260505194226 20 249 19.3 25.7 0.00 0.00 0.00 48 1004.4
20260505194108 20 253 17.7 25.7 0.00 0.00 0.00 48 1004.3
20260505194014 20 243 16.1 22.5 0.00 0.00 0.00 48 1004.2
20260505193907 20 263 14.5 19.3 0.00 0.00 0.00 48 1004.1
20260505193749 20 246 16.1 19.3 0.00 0.00 0.00 48 1004.1
20260505193652 19 233 14.5 19.3 0.00 0.00 0.00 49 1004.1
20260505193552 19 240 12.9 17.7 0.00 0.00 0.00 49 1004.0
20260505193527 19 234 11.3 14.5 0.00 0.00 0.00 49 1003.1
20260505193446 19 249 12.9 16.1 0.00 0.00 0.00 49 1004.0
20260505193353 19 236 12.9 16.1 0.00 0.00 0.00 49 1004.0
20260505193256 19 249 12.9 16.1 0.00 0.00 0.00 49 1004.0
20260505193016 19 231 11.3 16.1 0.00 0.00 0.00 49 1003.9
20260505192920 19 253 12.9 16.1 0.00 0.00 0.00 49 1003.9
20260505192823 19 251 11.3 16.1 0.00 0.00 0.00 48 1003.9
20260505192716 19 261 8.0 12.9 0.00 0.00 0.00 48 1003.8
20260505192623 20 253 8.0 12.9 0.00 0.00 0.00 48 1003.8
20260505192524 20 247 8.0 12.9 0.00 0.00 0.00 48 1003.8
20260505192427 20 240 8.0 12.9 0.00 0.00 0.00 47 1003.8
20260505192301 20 245 8.0 9.7 0.00 0.00 0.00 47 1003.7
20260505192143 20 240 6.4 9.7 0.00 0.00 0.00 47 1003.8
20260505192045 20 238 6.4 9.7 0.00 0.00 0.00 47 1003.8
20260505191948 20 243 6.4 9.7 0.00 0.00 0.00 47 1003.8
20260505191845 20 243 4.8 9.7 0.00 0.00 0.00 47 1003.7
20260505191748 20 249 6.4 11.3 0.00 0.00 0.00 46 1003.7
20260505191651 20 241 6.4 11.3 0.00 0.00 0.00 46 1003.7
20260505191550 20 240 6.4 11.3 0.00 0.00 0.00 46 1003.7
20260505191532 20 244 4.8 11.3 0.00 0.00 0.00 46 1002.8
20260505191445 20 258 4.8 11.3 0.00 0.00 0.00 46 1003.7
20260505191347 21 251 6.4 11.3 0.00 0.00 0.00 45 1003.7
20260505191233 21 257 6.4 11.3 0.00 0.00 0.00 45 1003.7
20260505191136 21 261 6.4 12.9 0.00 0.00 0.00 45 1003.7
20260505191102 21 261 6.4 12.9 0.00 0.00 0.00 45 1002.8
20260505191028 21 255 8.0 12.9 0.00 0.00 0.00 44 1003.7
20260505190930 21 228 8.0 12.9 0.00 0.00 0.00 45 1003.7
20260505190811 21 272 6.4 14.5 0.00 0.00 0.00 44 1003.6
20260505190653 21 259 6.4 14.5 0.00 0.00 0.00 44 1003.6
20260505190624 21 259 6.4 14.5 0.00 0.00 0.00 44 1002.7
20260505190529 21 259 8.0 14.5 0.00 0.00 0.00 44 1003.7
20260505190433 21 234 9.7 14.5 0.00 0.00 0.00 44 1003.6
20260505190337 21 230 9.7 14.5 0.00 0.00 0.00 44 1003.7
20260505190231 21 249 9.7 14.5 0.00 0.00 0.00 44 1003.6
20260505190113 21 230 9.7 14.5 0.00 0.00 0.00 44 1003.6
20260505190014 21 221 11.3 14.5 0.00 0.00 0.00 44 1003.6
20260505185907 21 222 9.7 14.5 0.00 0.00 0.00 44 1003.6
20260505185813 21 227 9.7 14.5 0.00 0.00 0.00 44 1003.6
20260505185716 21 247 9.7 14.5 0.00 0.00 0.00 43 1003.6
20260505185617 21 230 9.7 14.5 0.00 0.00 0.00 43 1003.5
20260505185542 21 243 8.0 14.5 0.00 0.00 0.00 43 1002.7
20260505185447 21 225 8.0 16.1 0.00 0.00 0.00 43 1003.5
20260505185330 21 235 8.0 16.1 0.00 0.00 0.00 43 1003.5
20260505185232 21 222 6.4 16.1 0.00 0.00 0.00 43 1003.5
20260505185109 21 221 6.4 16.1 0.00 0.00 0.00 43 1003.5
20260505185009 21 222 8.0 16.1 0.00 0.00 0.00 43 1003.6
20260505184912 21 217 8.0 16.1 0.00 0.00 0.00 43 1003.5
20260505184816 21 210 9.7 24.1 0.00 0.00 0.00 43 1003.5
20260505184710 21 215 9.7 24.1 0.00 0.00 0.00 43 1003.5
20260505184531 22 220 8.0 25.7 0.00 0.00 0.00 42 1003.5
20260505184439 21 217 9.7 25.7 0.00 0.00 0.00 43 1003.4
20260505184332 22 218 8.0 25.7 0.00 0.00 0.00 43 1003.5
20260505184233 22 193 8.0 25.7 0.00 0.00 0.00 42 1003.5
20260505184136 22 215 14.5 25.7 0.00 0.00 0.00 43 1003.5
20260505184016 22 249 14.5 25.7 0.00 0.00 0.00 42 1003.5
20260505183909 22 235 12.9 25.7 0.00 0.00 0.00 42 1003.5
20260505183755 22 218 12.9 25.7 0.00 0.00 0.00 42 1003.7
20260505183636 22 246 11.3 22.5 0.00 0.00 0.00 43 1003.5
20260505183538 22 219 11.3 22.5 0.00 0.00 0.00 42 1003.5
20260505183411 22 246 8.0 22.5 0.00 0.00 0.00 42 1003.4
20260505183313 22 226 6.4 22.5 0.00 0.00 0.00 43 1003.4
20260505183210 22 218 11.3 22.5 0.00 0.00 0.00 42 1003.4
20260505183113 22 225 12.9 22.5 0.00 0.00 0.00 42 1003.4
20260505183046 21 225 11.3 22.5 0.00 0.00 0.00 42 1002.5
20260505183008 22 237 9.7 22.5 0.00 0.00 0.00 42 1003.4
20260505182912 22 238 9.7 14.5 0.00 0.00 0.00 42 1003.4
20260505182815 22 230 9.7 14.5 0.00 0.00 0.00 42 1003.4
20260505182718 22 237 9.7 14.5 0.00 0.00 0.00 42 1003.5
20260505182651 22 226 8.0 16.1 0.00 0.00 0.00 42 1002.4
20260505182611 22 242 9.7 16.1 0.00 0.00 0.00 42 1003.4
20260505182511 22 232 9.7 16.1 0.00 0.00 0.00 42 1003.4
20260505182355 22 216 9.7 16.1 0.00 0.00 0.00 42 1003.4
20260505182235 22 270 11.3 16.1 0.00 0.00 0.00 42 1003.4
20260505182129 22 230 9.7 16.1 0.00 0.00 0.00 42 1003.4
20260505182009 22 224 11.3 16.1 0.00 0.00 0.00 41 1003.4
20260505181912 22 229 11.3 16.1 0.00 0.00 0.00 42 1003.4
20260505181816 22 203 8.0 16.1 0.00 0.00 0.00 41 1003.3
20260505181649 22 226 8.0 14.5 0.00 0.00 0.00 41 1003.3
20260505181553 22 230 8.0 14.5 0.00 0.00 0.00 41 1003.3
20260505181433 22 207 8.0 14.5 0.00 0.00 0.00 41 1003.2
20260505181336 22 224 8.0 14.5 0.00 0.00 0.00 41 1003.2
20260505181227 22 224 9.7 14.5 0.00 0.00 0.00 41 1003.2
20260505181130 23 202 9.7 14.5 0.00 0.00 0.00 40 1003.2
20260505180948 23 220 8.0 16.1 0.00 0.00 0.00 41 1003.3
20260505180856 23 238 8.0 16.1 0.00 0.00 0.00 41 1003.2
20260505180749 23 230 9.7 19.3 0.00 0.00 0.00 40 1003.2
20260505180654 23 223 9.7 19.3 0.00 0.00 0.00 40 1003.2
20260505180554 23 189 8.0 19.3 0.00 0.00 0.00 40 1003.2
20260505180437 23 214 6.4 19.3 0.00 0.00 0.00 40 1003.2
20260505180332 23 218 8.0 19.3 0.00 0.00 0.00 40 1003.1
20260505180232 23 208 8.0 19.3 0.00 0.00 0.00 40 1003.1
20260505180140 23 228 9.7 19.3 0.00 0.00 0.00 39 1003.2
20260505180041 23 180 11.3 19.3 0.00 0.00 0.00 39 1003.2
20260505180013 23 227 11.3 19.3 0.00 0.00 0.00 39 1002.2
20260505175935 23 206 11.3 19.3 0.00 0.00 0.00 39 1003.3
20260505175836 23 207 6.4 14.5 0.00 0.00 0.00 39 1003.2
20260505175657 23 226 4.8 14.5 0.00 0.00 0.00 39 1003.1
20260505175557 23 210 6.4 14.5 0.00 0.00 0.00 39 1003.2
20260505175536 23 210 6.4 14.5 0.00 0.00 0.00 39 1002.3
20260505175434 23 229 8.0 14.5 0.00 0.00 0.00 39 1003.2
20260505175337 23 172 8.0 16.1 0.00 0.00 0.00 39 1003.2
20260505175229 23 197 6.4 16.1 0.00 0.00 0.00 39 1003.2
20260505175133 23 190 8.0 16.1 0.00 0.00 0.00 39 1003.2
20260505175034 23 218 9.7 16.1 0.00 0.00 0.00 38 1003.2
20260505174933 23 204 8.0 16.1 0.00 0.00 0.00 38 1003.2
20260505174809 24 212 8.0 16.1 0.00 0.00 0.00 38 1003.3
20260505174712 24 197 9.7 16.1 0.00 0.00 0.00 38 1003.2
20260505174616 24 195 9.7 16.1 0.00 0.00 0.00 38 1003.3
20260505174517 24 221 9.7 17.7 0.00 0.00 0.00 38 1003.2
20260505174411 24 191 9.7 17.7 0.00 0.00 0.00 38 1003.2
20260505174254 24 210 9.7 16.1 0.00 0.00 0.00 38 1003.2
20260505174154 24 232 9.7 16.1 0.00 0.00 0.00 37 1003.2
20260505174059 24 204 9.7 16.1 0.00 0.00 0.00 37 1003.1
20260505174024 24 199 8.0 16.1 0.00 0.00 0.00 37 1002.2
20260505173931 25 222 8.0 16.1 0.00 0.00 0.00 37 1003.2
20260505173833 25 203 9.7 16.1 0.00 0.00 0.00 38 1003.2
20260505173736 25 245 8.0 16.1 0.00 0.00 0.00 37 1003.2
20260505173639 25 222 8.0 16.1 0.00 0.00 0.00 37 1003.2
20260505173543 24 237 6.4 16.1 0.00 0.00 0.00 37 1002.3
20260505173510 25 187 6.4 16.1 0.00 0.00 0.00 38 1003.2
20260505173335 25 220 4.8 12.9 0.00 0.00 0.00 37 1003.2
20260505173235 25 216 4.8 14.5 0.00 0.00 0.00 37 1003.1
20260505173145 25 227 4.8 14.5 0.00 0.00 0.00 37 1002.2
20260505173108 25 193 6.4 14.5 0.00 0.00 0.00 37 1003.2
20260505173008 25 211 8.0 16.1 0.00 0.00 0.00 37 1003.1
20260505172911 25 189 6.4 16.1 0.00 0.00 0.00 37 1003.2
20260505172815 25 193 4.8 16.1 0.00 0.00 0.00 37 1003.1
20260505172632 25 225 6.4 16.1 0.00 0.00 0.00 37 1003.0
20260505172534 25 220 8.0 16.1 0.00 0.00 0.00 37 1003.1
20260505172502 25 228 8.0 16.1 0.00 0.00 0.00 36 1002.2
20260505172427 25 230 8.0 16.1 0.00 0.00 0.00 36 1003.2
20260505172308 25 228 8.0 16.1 0.00 0.00 0.00 37 1003.2
20260505172210 25 191 8.0 17.7 0.00 0.00 0.00 37 1003.1
20260505172111 25 198 4.8 14.5 0.00 0.00 0.00 36 1003.1
20260505172021 25 218 4.8 14.5 0.00 0.00 0.00 36 1002.2
20260505171948 25 214 8.0 14.5 0.00 0.00 0.00 36 1003.1
20260505171850 25 215 8.0 14.5 0.00 0.00 0.00 36 1003.1
20260505171754 25 224 8.0 14.5 0.00 0.00 0.00 36 1003.1
20260505171657 25 203 6.4 14.5 0.00 0.00 0.00 36 1003.1
20260505171622 25 197 6.4 14.5 0.00 0.00 0.00 36 1002.2
20260505171419 25 218 4.8 14.5 0.00 0.00 0.00 36 1003.1
20260505171322 25 193 3.2 14.5 0.00 0.00 0.00 36 1003.1
20260505171226 25 209 4.8 14.5 0.00 0.00 0.00 36 1003.1
20260505171158 25 187 4.8 14.5 0.00 0.00 0.00 36 1002.2
20260505171120 25 172 8.0 14.5 0.00 0.00 0.00 36 1003.1
20260505171022 25 203 8.0 14.5 0.00 0.00 0.00 36 1003.2
20260505170906 25 227 6.4 14.5 0.00 0.00 0.00 36 1003.2
20260505170810 25 168 6.4 14.5 0.00 0.00 0.00 36 1003.1
20260505170703 25 209 6.4 14.5 0.00 0.00 0.00 36 1003.2
20260505170607 25 218 4.8 11.3 0.00 0.00 0.00 36 1003.1
20260505170513 25 211 4.8 11.3 0.00 0.00 0.00 37 1003.1
20260505170415 25 195 6.4 17.7 0.00 0.00 0.00 37 1003.1
20260505170308 25 210 6.4 17.7 0.00 0.00 0.00 35 1003.2
20260505170209 25 207 6.4 17.7 0.00 0.00 0.00 35 1003.1
20260505170110 25 178 4.8 17.7 0.00 0.00 0.00 36 1003.2
20260505165833 25 168 4.8 17.7 0.00 0.00 0.00 35 1003.3
20260505165739 25 224 6.4 17.7 0.00 0.00 0.00 35 1003.2
20260505165643 25 197 8.0 17.7 0.00 0.00 0.00 35 1003.3
20260505165543 25 227 8.0 11.3 0.00 0.00 0.00 35 1003.3
20260505165526 25 216 6.4 11.3 0.00 0.00 0.00 35 1002.3
20260505165437 25 207 6.4 11.3 0.00 0.00 0.00 35 1003.3
20260505165338 25 219 3.2 12.9 0.00 0.00 0.00 35 1003.3
20260505165158 25 216 3.2 12.9 0.00 0.00 0.00 36 1003.3
20260505165120 25 216 3.2 12.9 0.00 0.00 0.00 36 1002.3
20260505165033 25 216 3.2 14.5 0.00 0.00 0.00 36 1003.3
20260505164936 25 213 4.8 19.3 0.00 0.00 0.00 35 1003.3
20260505164839 25 215 8.0 19.3 0.00 0.00 0.00 35 1003.3
20260505164710 25 230 8.0 19.3 0.00 0.00 0.00 35 1003.3
20260505164612 25 234 8.0 19.3 0.00 0.00 0.00 35 1003.3
20260505164452 25 213 8.0 19.3 0.00 0.00 0.00 34 1003.3
20260505164359 25 176 8.0 19.3 0.00 0.00 0.00 34 1003.3
20260505164304 25 182 9.7 19.3 0.00 0.00 0.00 34 1003.3
20260505164147 26 240 9.7 19.3 0.00 0.00 0.00 34 1003.3
20260505164049 26 181 8.0 16.1 0.00 0.00 0.00 34 1003.3
20260505163952 26 202 6.4 16.1 0.00 0.00 0.00 34 1003.2
20260505163853 26 213 8.0 16.1 0.00 0.00 0.00 35 1003.3
20260505163747 26 222 8.0 14.5 0.00 0.00 0.00 34 1003.3
20260505163654 26 166 8.0 22.5 0.00 0.00 0.00 34 1003.2
20260505163556 26 199 8.0 22.5 0.00 0.00 0.00 33 1003.3
20260505163458 26 210 8.0 22.5 0.00 0.00 0.00 33 1003.3
20260505163352 26 202 9.7 22.5 0.00 0.00 0.00 34 1003.3
20260505163255 26 220 9.7 22.5 0.00 0.00 0.00 34 1003.3
20260505163157 26 230 8.0 22.5 0.00 0.00 0.00 33 1003.3
20260505163102 26 189 8.0 22.5 0.00 0.00 0.00 33 1003.3
20260505162945 26 208 12.9 22.5 0.00 0.00 0.00 33 1003.3
20260505162816 26 222 12.9 25.7 0.00 0.00 0.00 34 1003.2
20260505162718 26 245 11.3 22.5 0.00 0.00 0.00 34 1003.3
20260505162518 26 201 8.0 22.5 0.00 0.00 0.00 34 1002.4
20260505162441 26 235 8.0 22.5 0.00 0.00 0.00 34 1003.3
20260505162343 26 218 11.3 22.5 0.00 0.00 0.00 34 1003.3
20260505162227 26 236 12.9 22.5 0.00 0.00 0.00 33 1003.3
20260505162131 26 213 11.3 22.5 0.00 0.00 0.00 34 1003.3
20260505162056 26 241 9.7 20.9 0.00 0.00 0.00 34 1002.4
20260505162020 26 206 8.0 17.7 0.00 0.00 0.00 33 1003.3
20260505161903 26 180 11.3 17.7 0.00 0.00 0.00 34 1003.4
20260505161745 26 221 9.7 20.9 0.00 0.00 0.00 35 1003.3
20260505161628 26 223 9.7 20.9 0.00 0.00 0.00 34 1003.3
20260505161534 26 218 9.7 20.9 0.00 0.00 0.00 34 1002.4
20260505161457 26 196 11.3 20.9 0.00 0.00 0.00 33 1003.4
20260505161343 26 202 11.3 20.9 0.00 0.00 0.00 34 1003.4
20260505161246 26 218 11.3 20.9 0.00 0.00 0.00 35 1003.4
20260505161147 26 234 11.3 20.9 0.00 0.00 0.00 34 1003.5
20260505161026 26 232 8.0 16.1 0.00 0.00 0.00 36 1003.4
20260505161005 26 232 8.0 16.1 0.00 0.00 0.00 35 1002.5
20260505160921 26 214 9.7 16.1 0.00 0.00 0.00 35 1003.4
20260505160656 26 213 11.3 17.7 0.00 0.00 0.00 33 1003.4
20260505160621 26 224 11.3 17.7 0.00 0.00 0.00 33 1002.5
20260505160532 26 251 11.3 17.7 0.00 0.00 0.00 34 1003.5
20260505160435 26 218 8.0 17.7 0.00 0.00 0.00 34 1003.5
20260505160316 26 210 6.4 17.7 0.00 0.00 0.00 33 1003.4
20260505160208 26 209 8.0 17.7 0.00 0.00 0.00 33 1003.5
20260505160109 26 194 11.3 17.7 0.00 0.00 0.00 33 1003.5
20260505153259 27 217 12.9 32.2 0.00 0.00 0.00 32 1003.7
20260505153200 27 202 12.9 32.2 0.00 0.00 0.00 32 1003.7
20260505153101 27 218 11.3 32.2 0.00 0.00 0.00 32 1003.6
20260505153008 27 235 11.3 32.2 0.00 0.00 0.00 31 1003.6
20260505152902 27 213 11.3 33.8 0.00 0.00 0.00 31 1003.7
20260505152743 27 209 17.7 33.8 0.00 0.00 0.00 31 1003.7
20260505152644 27 240 19.3 33.8 0.00 0.00 0.00 31 1003.7
20260505152523 27 238 14.5 33.8 0.00 0.00 0.00 31 1003.7
20260505152356 27 212 17.7 33.8 0.00 0.00 0.00 31 1003.7
20260505152305 27 239 19.3 33.8 0.00 0.00 0.00 31 1003.7
20260505152204 27 244 22.5 33.8 0.00 0.00 0.00 31 1003.8
20260505152106 28 192 24.1 33.8 0.00 0.00 0.00 31 1003.9
20260505152033 27 230 20.9 33.8 0.00 0.00 0.00 31 1002.7
20260505151937 28 238 17.7 27.4 0.00 0.00 0.00 32 1003.7
20260505151840 28 182 16.1 27.4 0.00 0.00 0.00 33 1003.7
20260505151719 27 236 12.9 27.4 0.00 0.00 0.00 32 1003.8
20260505151622 27 182 11.3 27.4 0.00 0.00 0.00 32 1003.7
20260505151552 27 208 11.3 27.4 0.00 0.00 0.00 32 1002.9
20260505151517 27 236 12.9 27.4 0.00 0.00 0.00 33 1003.8
20260505151359 27 210 16.1 27.4 0.00 0.00 0.00 33 1003.7
20260505151301 27 228 16.1 25.7 0.00 0.00 0.00 33 1003.7
20260505151143 27 235 14.5 24.1 0.00 0.00 0.00 32 1003.8
20260505151113 27 236 12.9 24.1 0.00 0.00 0.00 32 1002.9
20260505151034 27 205 12.9 24.1 0.00 0.00 0.00 34 1003.8
20260505150914 27 205 12.9 22.5 0.00 0.00 0.00 34 1003.8
20260505150759 26 216 8.0 14.5 0.00 0.00 0.00 34 1003.8
20260505150700 26 210 8.0 12.9 0.00 0.00 0.00 34 1003.7
20260505150631 26 231 8.0 12.9 0.00 0.00 0.00 34 1002.8
20260505150530 26 242 4.8 11.3 0.00 0.00 0.00 33 1003.8
20260505150435 26 140 4.8 16.1 0.00 0.00 0.00 34 1003.8
20260505150327 26 216 4.8 16.1 0.00 0.00 0.00 34 1003.8
20260505150207 26 197 3.2 17.7 0.00 0.00 0.00 35 1003.8
20260505150115 26 197 6.4 17.7 0.00 0.00 0.00 34 1003.8